FW4143 Weather Reports


time (UTC)temp
C
wind
direction
speed
KPH
gust
KPH
rain 1hr
cm
rain 24hr
cm
rain mn
cm
humidity
%
barometer
mb
20260509043104 23 358 1.6 6.4 0.00 0.00 0.00 1 1010.3
20260509043004 23 358 1.6 6.4 0.00 0.00 0.00 1 1010.2
20260509042924 23 358 3.2 6.4 0.00 0.00 0.00 1 1010.3
20260509042803 23 358 3.2 6.4 0.00 0.00 0.00 1 1010.2
20260509042704 23 359 3.2 9.7 0.00 0.00 0.00 1 1010.3
20260509042604 23 359 3.2 9.7 0.00 0.00 0.00 1 1010.3
20260509042504 23 360 3.2 9.7 0.00 0.00 0.00 1 1010.3
20260509042404 23 2 4.8 9.7 0.00 0.00 0.00 1 1010.3
20260509042306 23 5 4.8 9.7 0.00 0.00 0.00 1 1010.3
20260509042203 23 7 4.8 9.7 0.00 0.00 0.00 1 1010.4
20260509042104 23 9 4.8 9.7 0.00 0.00 0.00 1 1010.4
20260509042004 23 13 4.8 9.7 0.00 0.00 0.00 1 1010.4
20260509041903 23 17 4.8 9.7 0.00 0.00 0.00 1 1010.4
20260509041803 23 21 3.2 9.7 0.00 0.00 0.00 1 1010.4
20260509041703 23 26 3.2 8.0 0.00 0.00 0.00 1 1010.4
20260509041603 23 29 3.2 8.0 0.00 0.00 0.00 1 1010.4
20260509041503 23 33 3.2 8.0 0.00 0.00 0.00 1 1010.4
20260509041403 23 38 3.2 8.0 0.00 0.00 0.00 1 1010.4
20260509041304 23 39 3.2 6.4 0.00 0.00 0.00 1 1010.4
20260509041203 23 39 3.2 6.4 0.00 0.00 0.00 1 1010.5
20260509041124 23 39 3.2 6.4 0.00 0.00 0.00 1 1010.4
20260509041004 23 39 3.2 6.4 0.00 0.00 0.00 1 1010.4
20260509040924 23 40 3.2 6.4 0.00 0.00 0.00 1 1010.5
20260509040804 23 40 3.2 6.4 0.00 0.00 0.00 1 1010.5
20260509040704 23 40 3.2 6.4 0.00 0.00 0.00 1 1010.5
20260509040603 23 40 3.2 6.4 0.00 0.00 0.00 1 1010.5
20260509040504 23 40 3.2 6.4 0.00 0.00 0.00 1 1010.5
20260509040425 23 40 3.2 6.4 0.00 0.00 0.00 1 1010.5
20260509040304 23 40 1.6 6.4 0.00 0.00 0.00 1 1010.5
20260509040224 23 40 3.2 6.4 0.00 0.00 0.00 1 1010.5
20260509040124 23 40 3.2 6.4 0.00 0.00 0.00 1 1010.5
20260509040004 23 40 3.2 6.4 0.00 0.00 0.00 1 1010.4
20260509035924 23 40 3.2 6.4 0.00 0.00 0.00 1 1010.5
20260509035804 23 40 3.2 6.4 0.00 0.00 0.00 1 1010.4
20260509035704 23 40 3.2 6.4 0.00 0.00 0.00 1 1010.4
20260509035603 23 40 3.2 6.4 0.00 0.00 0.00 1 1010.4
20260509035503 23 40 3.2 6.4 0.00 0.00 0.00 1 1010.4
20260509035404 23 40 3.2 6.4 0.00 0.00 0.00 1 1010.3
20260509035306 23 40 3.2 6.4 0.00 0.00 0.00 1 1010.2
20260509035203 23 40 3.2 6.4 0.00 0.00 0.00 1 1010.2
20260509035104 23 40 3.2 6.4 0.00 0.00 0.00 1 1010.2
20260509035003 23 40 3.2 8.0 0.00 0.00 0.00 1 1010.2
20260509034924 23 39 3.2 8.0 0.00 0.00 0.00 1 1010.2
20260509034803 23 39 3.2 8.0 0.00 0.00 0.00 1 1010.2
20260509034703 23 38 3.2 8.0 0.00 0.00 0.00 1 1010.2
20260509034625 23 38 3.2 8.0 0.00 0.00 0.00 1 1010.2
20260509034503 23 37 3.2 8.0 0.00 0.00 0.00 1 1010.2
20260509034403 23 33 3.2 9.7 0.00 0.00 0.00 1 1010.2
20260509034304 23 26 3.2 9.7 0.00 0.00 0.00 1 1010.2
20260509034204 23 21 3.2 9.7 0.00 0.00 0.00 1 1010.1
20260509034103 23 16 3.2 9.7 0.00 0.00 0.00 1 1010.1
20260509034004 23 7 3.2 9.7 0.00 0.00 0.00 1 1010.1
20260509033924 23 4 3.2 9.7 0.00 0.00 0.00 1 1010.1
20260509033803 23 354 3.2 9.7 0.00 0.00 0.00 1 1010.1
20260509033703 23 344 3.2 9.7 0.00 0.00 0.00 1 1010.0
20260509033624 23 341 3.2 9.7 0.00 0.00 0.00 1 1010.1
20260509033503 23 329 3.2 9.7 0.00 0.00 0.00 1 1010.1
20260509033403 23 322 3.2 8.0 0.00 0.00 0.00 1 1010.0
20260509033304 23 320 3.2 6.4 0.00 0.00 0.00 1 1010.1
20260509033203 23 320 3.2 6.4 0.00 0.00 0.00 1 1010.0
20260509033103 23 319 3.2 6.4 0.00 0.00 0.00 1 1010.0
20260509033003 23 317 3.2 6.4 0.00 0.00 0.00 1 1010.0
20260509032904 23 317 3.2 6.4 0.00 0.00 0.00 1 1010.0
20260509032804 23 316 3.2 6.4 0.00 0.00 0.00 1 1010.0
20260509032703 23 316 3.2 6.4 0.00 0.00 0.00 1 1010.0
20260509032603 23 316 1.6 6.4 0.00 0.00 0.00 1 1010.0
20260509032503 23 316 1.6 6.4 0.00 0.00 0.00 1 1010.0
20260509032403 23 316 1.6 6.4 0.00 0.00 0.00 1 1010.0
20260509032306 23 316 1.6 6.4 0.00 0.00 0.00 1 1010.0
20260509032203 23 316 1.6 6.4 0.00 0.00 0.00 1 1010.0
20260509032103 23 316 1.6 6.4 0.00 0.00 0.00 1 1010.0
20260509032025 23 316 1.6 6.4 0.00 0.00 0.00 1 1010.0
20260509031903 23 316 1.6 6.4 0.00 0.00 0.00 1 1010.0
20260509031803 23 316 1.6 6.4 0.00 0.00 0.00 1 1010.0
20260509031704 23 316 1.6 6.4 0.00 0.00 0.00 1 1010.0
20260509031603 23 316 1.6 4.8 0.00 0.00 0.00 1 1010.0
20260509031524 23 316 1.6 4.8 0.00 0.00 0.00 1 1010.0
20260509031403 23 316 1.6 4.8 0.00 0.00 0.00 1 1010.0
20260509031325 23 316 1.6 4.8 0.00 0.00 0.00 1 1010.1
20260509031203 23 316 1.6 4.8 0.00 0.00 0.00 1 1010.0
20260509031104 23 316 1.6 4.8 0.00 0.00 0.00 1 1010.0
20260509031004 23 316 1.6 3.2 0.00 0.00 0.00 1 1010.0
20260509030903 23 316 1.6 3.2 0.00 0.00 0.00 1 1010.0
20260509030803 23 316 1.6 3.2 0.00 0.00 0.00 1 1010.0
20260509030703 23 316 1.6 3.2 0.00 0.00 0.00 1 1010.0
20260509030603 23 316 1.6 3.2 0.00 0.00 0.00 1 1010.0
20260509030503 23 316 1.6 3.2 0.00 0.00 0.00 1 1010.1
20260509030425 23 316 1.6 3.2 0.00 0.00 0.00 1 1010.0
20260509030303 23 316 0.0 3.2 0.00 0.00 0.00 1 1010.0
20260509030203 23 316 0.0 3.2 0.00 0.00 0.00 1 1010.1
20260509030003 23 316 0.0 3.2 0.00 0.00 0.00 1 1010.1
20260509025903 23 316 1.6 3.2 0.00 0.00 0.00 1 1010.1
20260509025825 23 316 1.6 3.2 0.00 0.00 0.00 1 1010.0
20260509025704 23 316 1.6 3.2 0.00 0.00 0.00 1 1010.0
20260509025604 23 316 1.6 3.2 0.00 0.00 0.00 1 1010.0
20260509025503 23 316 1.6 3.2 0.00 0.00 0.00 1 1010.0
20260509025404 23 316 0.0 3.2 0.00 0.00 0.00 1 1010.0
20260509025306 23 316 1.6 3.2 0.00 0.00 0.00 1 1010.0
20260509025203 23 316 1.6 3.2 0.00 0.00 0.00 1 1010.0
20260509025104 23 316 1.6 3.2 0.00 0.00 0.00 1 1009.9
20260509025025 23 316 1.6 6.4 0.00 0.00 0.00 1 1010.0
20260509024903 23 315 1.6 6.4 0.00 0.00 0.00 1 1009.9
20260509024825 24 315 1.6 6.4 0.00 0.00 0.00 1 1009.9
20260509024725 24 315 1.6 6.4 0.00 0.00 0.00 1 1009.9
20260509024603 24 315 1.6 6.4 0.00 0.00 0.00 1 1009.9
20260509024503 24 315 1.6 6.4 0.00 0.00 0.00 1 1009.9
20260509024403 24 315 1.6 6.4 0.00 0.00 0.00 1 1009.8
20260509024303 24 315 1.6 6.4 0.00 0.00 0.00 1 1009.8
20260509024204 24 315 1.6 6.4 0.00 0.00 0.00 1 1009.8
20260509024103 24 314 1.6 6.4 0.00 0.00 0.00 1 1009.7
20260509024003 24 314 1.6 4.8 0.00 0.00 0.00 1 1009.7
20260509023903 24 314 1.6 4.8 0.00 0.00 0.00 1 1009.7
20260509023803 24 315 1.6 8.0 0.00 0.00 0.00 1 1009.8
20260509023704 24 316 1.6 8.0 0.00 0.00 0.00 1 1009.7
20260509023603 24 316 3.2 8.0 0.00 0.00 0.00 1 1009.8
20260509023503 24 317 3.2 8.0 0.00 0.00 0.00 1 1009.7
20260509023403 24 318 3.2 8.0 0.00 0.00 0.00 1 1009.7
20260509023303 24 318 3.2 8.0 0.00 0.00 0.00 1 1009.7
20260509023203 24 319 3.2 8.0 0.00 0.00 0.00 1 1009.7
20260509023104 24 319 3.2 8.0 0.00 0.00 0.00 1 1009.7
20260509023025 24 320 3.2 8.0 0.00 0.00 0.00 1 1009.6
20260509022924 24 320 3.2 8.0 0.00 0.00 0.00 1 1009.6
20260509022803 24 322 3.2 6.4 0.00 0.00 0.00 1 1009.6
20260509022704 24 322 3.2 6.4 0.00 0.00 0.00 1 1009.6
20260509022603 24 322 1.6 6.4 0.00 0.00 0.00 1 1009.5
20260509022525 24 322 1.6 6.4 0.00 0.00 0.00 1 1009.5
20260509022403 24 321 1.6 6.4 0.00 0.00 0.00 1 1009.5
20260509022306 24 321 1.6 6.4 0.00 0.00 0.00 1 1009.5
20260509022204 24 321 1.6 6.4 0.00 0.00 0.00 1 1009.5
20260509022103 24 320 1.6 6.4 0.00 0.00 0.00 1 1009.5
20260509022003 24 320 1.6 6.4 0.00 0.00 0.00 1 1009.6
20260509021904 24 320 1.6 6.4 0.00 0.00 0.00 1 1009.5
20260509021804 24 319 1.6 6.4 0.00 0.00 0.00 1 1009.5
20260509021704 24 319 1.6 6.4 0.00 0.00 0.00 1 1009.5
20260509021603 24 319 1.6 6.4 0.00 0.00 0.00 1 1009.5
20260509021525 24 319 1.6 6.4 0.00 0.00 0.00 1 1009.5
20260509021403 24 319 1.6 6.4 0.00 0.00 0.00 1 1009.4
20260509021304 24 319 1.6 6.4 0.00 0.00 0.00 1 1009.5
20260509021224 24 319 1.6 6.4 0.00 0.00 0.00 1 1009.4
20260509021104 24 319 1.6 6.4 0.00 0.00 0.00 1 1009.4
20260509021003 24 319 1.6 6.4 0.00 0.00 0.00 1 1009.4
20260509020904 24 319 1.6 11.3 0.00 0.00 0.00 1 1009.4
20260509020803 24 319 1.6 11.3 0.00 0.00 0.00 1 1009.3
20260509020703 24 319 1.6 11.3 0.00 0.00 0.00 1 1009.3
20260509020603 25 319 3.2 11.3 0.00 0.00 0.00 1 1009.4
20260509020525 25 319 3.2 11.3 0.00 0.00 0.00 1 1009.4
20260509020403 25 320 3.2 11.3 0.00 0.00 0.00 1 1009.3
20260509020304 25 321 3.2 11.3 0.00 0.00 0.00 1 1009.3
20260509020203 25 322 3.2 11.3 0.00 0.00 0.00 1 1009.3
20260509020124 25 322 3.2 11.3 0.00 0.00 0.00 1 1009.3
20260509020024 25 322 3.2 11.3 0.00 0.00 0.00 1 1009.3
20260509015925 25 322 4.8 11.3 0.00 0.00 0.00 1 1009.2
20260509015804 25 322 4.8 12.9 0.00 0.00 0.00 1 1009.2
20260509015724 25 323 4.8 12.9 0.00 0.00 0.00 1 1009.2
20260509015604 25 327 4.8 14.5 0.00 0.00 0.00 1 1009.1
20260509015503 25 327 6.4 14.5 0.00 0.00 0.00 1 1009.1
20260509015424 25 327 6.4 14.5 0.00 0.00 0.00 1 1009.1
20260509015306 25 326 6.4 14.5 0.00 0.00 0.00 1 1009.1
20260509015204 25 326 6.4 14.5 0.00 0.00 0.00 1 1009.2
20260509015103 25 325 6.4 14.5 0.00 0.00 0.00 1 1009.2
20260509015004 25 324 6.4 14.5 0.00 0.00 0.00 1 1009.2
20260509014904 25 327 6.4 14.5 0.00 0.00 0.00 1 1009.1
20260509014824 25 328 6.4 14.5 0.00 0.00 0.00 1 1009.2
20260509014703 25 328 6.4 14.5 0.00 0.00 0.00 1 1009.1
20260509014604 25 327 4.8 12.9 0.00 0.00 0.00 1 1009.1
20260509014524 25 329 4.8 12.9 0.00 0.00 0.00 1 1009.1
20260509014404 25 334 4.8 12.9 0.00 0.00 0.00 1 1009.2
20260509014303 25 339 4.8 12.9 0.00 0.00 0.00 1 1009.2
20260509014225 25 342 4.8 12.9 0.00 0.00 0.00 1 1009.2
20260509014103 25 347 4.8 11.3 0.00 0.00 0.00 1 1009.2
20260509014003 25 347 4.8 11.3 0.00 0.00 0.00 1 1009.2
20260509013903 25 343 4.8 11.3 0.00 0.00 0.00 1 1009.2
20260509013803 25 345 4.8 11.3 0.00 0.00 0.00 1 1009.1
20260509013704 25 348 4.8 11.3 0.00 0.00 0.00 1 1009.1
20260509013604 25 350 4.8 11.3 0.00 0.00 0.00 1 1009.2
20260509013503 25 345 4.8 11.3 0.00 0.00 0.00 1 1009.2
20260509013424 25 340 4.8 11.3 0.00 0.00 0.00 1 1009.2
20260509013304 25 326 4.8 11.3 0.00 0.00 0.00 1 1009.1
20260509013203 25 314 4.8 11.3 0.00 0.00 0.00 1 1009.1
20260509013103 25 313 4.8 11.3 0.00 0.00 0.00 1 1009.1
20260509013003 25 311 4.8 11.3 0.00 0.00 0.00 1 1009.1
20260509012903 25 307 4.8 9.7 0.00 0.00 0.00 1 1009.1
20260509012803 25 305 4.8 9.7 0.00 0.00 0.00 1 1009.1
20260509012703 25 300 4.8 9.7 0.00 0.00 0.00 1 1009.1
20260509012603 25 296 4.8 9.7 0.00 0.00 0.00 1 1009.1
20260509012503 25 299 4.8 9.7 0.00 0.00 0.00 1 1009.1
20260509012403 25 304 4.8 9.7 0.00 0.00 0.00 1 1009.1
20260509012306 25 309 3.2 9.7 0.00 0.00 0.00 1 1009.1
20260509012204 25 314 3.2 9.7 0.00 0.00 0.00 1 1009.1
20260509012103 25 316 3.2 9.7 0.00 0.00 0.00 1 1009.1
20260509012003 25 318 3.2 9.7 0.00 0.00 0.00 1 1009.2
20260509011903 25 315 3.2 9.7 0.00 0.00 0.00 1 1009.1
20260509011824 25 311 3.2 9.7 0.00 0.00 0.00 1 1009.1
20260509011704 25 305 3.2 9.7 0.00 0.00 0.00 1 1009.1
20260509011603 25 300 4.8 9.7 0.00 0.00 0.00 1 1009.1
20260509011503 25 297 4.8 9.7 0.00 0.00 0.00 1 1009.1
20260509011403 25 296 4.8 9.7 0.00 0.00 0.00 1 1009.1
20260509011304 25 294 4.8 9.7 0.00 0.00 0.00 1 1009.1
20260509011204 25 293 4.8 9.7 0.00 0.00 0.00 3 1009.2
20260509011104 25 292 4.8 9.7 0.00 0.00 0.00 3 1009.1
20260509011003 25 290 4.8 9.7 0.00 0.00 0.00 4 1009.1
20260509010903 25 294 4.8 9.7 0.00 0.00 0.00 4 1009.0
20260509010803 25 301 4.8 9.7 0.00 0.00 0.00 4 1009.1
20260509010704 25 307 4.8 9.7 0.00 0.00 0.00 5 1009.0
20260509010603 25 311 4.8 9.7 0.00 0.00 0.00 6 1009.0
20260509010503 25 315 3.2 11.3 0.00 0.00 0.00 6 1009.0
20260509010404 25 316 3.2 11.3 0.00 0.00 0.00 6 1009.0
20260509010325 25 316 4.8 11.3 0.00 0.00 0.00 6 1009.0
20260509010204 25 316 4.8 11.3 0.00 0.00 0.00 6 1009.0
20260509010103 25 314 4.8 11.3 0.00 0.00 0.00 7 1009.1
20260509010004 25 314 4.8 11.3 0.00 0.00 0.00 7 1009.1
20260509005904 25 310 4.8 11.3 0.00 0.00 0.00 7 1009.1
20260509005803 25 303 4.8 11.3 0.00 0.00 0.00 7 1009.0
20260509005703 25 300 4.8 11.3 0.00 0.00 0.00 7 1009.1
20260509005603 25 298 4.8 11.3 0.00 0.00 0.00 7 1009.0
20260509005524 25 299 4.8 11.3 0.00 0.00 0.00 6 1009.0
20260509005403 25 301 4.8 11.3 0.00 0.00 0.00 7 1009.1
20260509005306 25 302 4.8 11.3 0.00 0.00 0.00 7 1009.1
20260509005203 25 303 4.8 11.3 0.00 0.00 0.00 7 1009.0
20260509005103 25 305 4.8 11.3 0.00 0.00 0.00 6 1009.0
20260509005004 25 307 4.8 11.3 0.00 0.00 0.00 6 1009.0
20260509004903 25 313 4.8 11.3 0.00 0.00 0.00 6 1009.0
20260509004825 25 318 4.8 11.3 0.00 0.00 0.00 6 1009.0
20260509004703 25 327 4.8 11.3 0.00 0.00 0.00 6 1008.9
20260509004603 25 330 4.8 11.3 0.00 0.00 0.00 7 1008.9
20260509004525 25 333 3.2 9.7 0.00 0.00 0.00 7 1008.9
20260509004403 25 340 3.2 9.7 0.00 0.00 0.00 7 1009.0
20260509004303 26 342 4.8 11.3 0.00 0.00 0.00 8 1008.9
20260509004203 26 341 3.2 11.3 0.00 0.00 0.00 8 1008.9
20260509004103 26 341 3.2 11.3 0.00 0.00 0.00 8 1008.9
20260509004003 26 340 3.2 11.3 0.00 0.00 0.00 9 1008.9
20260509003903 26 339 3.2 11.3 0.00 0.00 0.00 9 1008.9
20260509003803 26 337 3.2 11.3 0.00 0.00 0.00 9 1008.9
20260509003703 26 334 3.2 11.3 0.00 0.00 0.00 9 1008.9
20260509003625 26 334 3.2 11.3 0.00 0.00 0.00 9 1008.9
20260509003524 26 333 3.2 11.3 0.00 0.00 0.00 10 1008.9
20260509003403 26 327 4.8 11.3 0.00 0.00 0.00 11 1008.9
20260509003303 26 317 3.2 11.3 0.00 0.00 0.00 11 1008.9
20260509003203 26 312 4.8 11.3 0.00 0.00 0.00 11 1008.9
20260509003104 26 313 4.8 11.3 0.00 0.00 0.00 11 1008.9
20260509003003 26 313 4.8 11.3 0.00 0.00 0.00 11 1008.9
20260509002903 26 314 4.8 11.3 0.00 0.00 0.00 12 1008.9
20260509002803 26 313 4.8 14.5 0.00 0.00 0.00 11 1008.9
20260509002704 26 311 4.8 14.5 0.00 0.00 0.00 12 1008.9
20260509002603 26 307 6.4 14.5 0.00 0.00 0.00 12 1008.8
20260509002503 26 304 6.4 14.5 0.00 0.00 0.00 13 1008.8
20260509002404 26 303 6.4 14.5 0.00 0.00 0.00 13 1008.9
20260509002306 26 302 6.4 14.5 0.00 0.00 0.00 13 1008.9
20260509002203 26 302 4.8 14.5 0.00 0.00 0.00 13 1008.9
20260509002103 26 298 4.8 14.5 0.00 0.00 0.00 13 1008.9
20260509002004 26 299 6.4 14.5 0.00 0.00 0.00 14 1008.8
20260509001904 26 298 4.8 14.5 0.00 0.00 0.00 14 1008.9
20260509001804 26 295 4.8 12.9 0.00 0.00 0.00 14 1008.9
20260509001703 26 296 4.8 12.9 0.00 0.00 0.00 15 1008.9
20260509001603 26 295 4.8 12.9 0.00 0.00 0.00 15 1008.9
20260509001503 26 298 4.8 12.9 0.00 0.00 0.00 16 1008.9
20260509001404 26 301 4.8 12.9 0.00 0.00 0.00 16 1008.9
20260509001303 26 302 4.8 12.9 0.00 0.00 0.00 16 1008.8
20260509001203 26 300 4.8 12.9 0.00 0.00 0.00 16 1008.8
20260509001104 26 296 4.8 12.9 0.00 0.00 0.00 16 1008.8
20260509001004 26 289 4.8 12.9 0.00 0.00 0.00 15 1008.8
20260509000903 26 282 6.4 12.9 0.00 0.00 0.00 15 1008.9
20260509000803 26 275 4.8 12.9 0.00 0.00 0.00 15 1008.8
20260509000725 26 270 4.8 12.9 0.00 0.00 0.00 15 1008.9
20260509000603 26 264 6.4 12.9 0.00 0.00 0.00 15 1008.9
20260509000503 26 259 4.8 12.9 0.00 0.00 0.00 15 1008.8
20260509000425 26 254 4.8 12.9 0.00 0.00 0.00 15 1008.8
20260509000304 26 252 4.8 12.9 0.00 0.00 0.00 15 1008.8
20260509000204 26 252 4.8 12.9 0.00 0.00 0.00 16 1008.8
20260509000103 26 252 4.8 12.9 0.00 0.00 0.00 17 1008.8
20260509000003 26 251 4.8 12.9 0.00 0.00 0.00 17 1008.8
20260508235925 26 251 4.8 12.9 0.00 0.00 0.00 18 1008.8
20260508235803 26 250 4.8 9.7 0.00 0.00 0.00 19 1008.8
20260508235703 26 251 4.8 9.7 0.00 0.00 0.00 19 1008.8
20260508235624 26 251 4.8 9.7 0.00 0.00 0.00 19 1008.8
20260508235503 26 253 4.8 11.3 0.00 0.00 0.00 20 1008.8
20260508235404 26 255 4.8 11.3 0.00 0.00 0.00 20 1008.9
20260508235325 26 256 4.8 11.3 0.00 0.00 0.00 21 1008.9
20260508235203 26 259 4.8 11.3 0.00 0.00 0.00 21 1008.9
20260508235103 26 261 4.8 11.3 0.00 0.00 0.00 21 1008.9
20260508235003 26 263 4.8 11.3 0.00 0.00 0.00 23 1009.0
20260508234903 26 267 4.8 11.3 0.00 0.00 0.00 23 1009.0
20260508234824 26 268 4.8 11.3 0.00 0.00 0.00 23 1009.0
20260508234704 26 270 4.8 11.3 0.00 0.00 0.00 23 1008.9
20260508234603 26 272 3.2 8.0 0.00 0.00 0.00 23 1009.0
20260508234503 26 274 3.2 8.0 0.00 0.00 0.00 23 1009.0
20260508234403 26 274 3.2 8.0 0.00 0.00 0.00 25 1009.0
20260508234303 26 276 3.2 8.0 0.00 0.00 0.00 25 1008.9
20260508234204 26 277 3.2 8.0 0.00 0.00 0.00 26 1009.0
20260508234104 26 278 3.2 8.0 0.00 0.00 0.00 25 1009.0
20260508234024 26 278 3.2 8.0 0.00 0.00 0.00 25 1009.0
20260508233904 26 280 3.2 8.0 0.00 0.00 0.00 26 1009.0
20260508233803 26 280 3.2 8.0 0.00 0.00 0.00 27 1009.0
20260508233703 26 281 3.2 8.0 0.00 0.00 0.00 27 1009.0
20260508233604 26 282 3.2 8.0 0.00 0.00 0.00 28 1009.0
20260508233503 26 283 3.2 8.0 0.00 0.00 0.00 28 1009.0
20260508233424 26 282 3.2 8.0 0.00 0.00 0.00 28 1009.0
20260508233303 26 281 3.2 6.4 0.00 0.00 0.00 29 1009.0
20260508233225 26 281 3.2 8.0 0.00 0.00 0.00 29 1008.9
20260508233124 26 279 3.2 8.0 0.00 0.00 0.00 29 1008.9
20260508233003 26 277 3.2 8.0 0.00 0.00 0.00 30 1008.9
20260508232903 26 276 3.2 8.0 0.00 0.00 0.00 30 1009.0
20260508232803 26 275 3.2 8.0 0.00 0.00 0.00 30 1009.0
20260508232703 26 274 4.8 8.0 0.00 0.00 0.00 31 1009.0
20260508232603 26 273 3.2 8.0 0.00 0.00 0.00 31 1009.0
20260508232503 26 271 3.2 8.0 0.00 0.00 0.00 31 1009.0
20260508232403 26 269 3.2 8.0 0.00 0.00 0.00 31 1009.0
20260508232306 26 267 3.2 8.0 0.00 0.00 0.00 30 1009.0
20260508232224 26 266 3.2 8.0 0.00 0.00 0.00 31 1009.0
20260508232103 26 265 3.2 8.0 0.00 0.00 0.00 30 1008.9
20260508232003 26 263 3.2 8.0 0.00 0.00 0.00 30 1009.0
20260508231924 26 263 3.2 8.0 0.00 0.00 0.00 30 1009.0
20260508231803 26 262 1.6 8.0 0.00 0.00 0.00 29 1008.9
20260508231704 26 260 1.6 8.0 0.00 0.00 0.00 29 1008.9
20260508231603 26 260 3.2 8.0 0.00 0.00 0.00 28 1008.8
20260508231503 26 258 1.6 8.0 0.00 0.00 0.00 28 1008.8
20260508231403 26 257 1.6 4.8 0.00 0.00 0.00 28 1008.8
20260508231304 26 258 1.6 4.8 0.00 0.00 0.00 27 1008.8
20260508231203 26 258 3.2 4.8 0.00 0.00 0.00 27 1008.8
20260508231103 26 258 1.6 4.8 0.00 0.00 0.00 28 1008.8
20260508231003 26 259 3.2 4.8 0.00 0.00 0.00 28 1008.8
20260508230903 26 259 3.2 4.8 0.00 0.00 0.00 29 1008.8
20260508230803 26 259 3.2 4.8 0.00 0.00 0.00 29 1008.8
20260508230703 26 260 3.2 4.8 0.00 0.00 0.00 29 1008.8
20260508230603 26 260 3.2 4.8 0.00 0.00 0.00 29 1008.8
20260508230503 26 261 3.2 6.4 0.00 0.00 0.00 29 1008.8
20260508230403 26 261 3.2 6.4 0.00 0.00 0.00 30 1008.8
20260508230303 26 261 3.2 6.4 0.00 0.00 0.00 30 1008.8
20260508230203 26 261 1.6 6.4 0.00 0.00 0.00 30 1008.8
20260508230104 26 261 3.2 6.4 0.00 0.00 0.00 30 1008.8
20260508230004 26 262 3.2 6.4 0.00 0.00 0.00 29 1008.8
20260508225924 26 263 3.2 6.4 0.00 0.00 0.00 29 1008.8
20260508225825 26 264 3.2 6.4 0.00 0.00 0.00 29 1008.9
20260508225703 26 265 3.2 6.4 0.00 0.00 0.00 29 1008.8
20260508225604 26 265 3.2 6.4 0.00 0.00 0.00 29 1008.8
20260508225503 26 267 3.2 6.4 0.00 0.00 0.00 28 1008.9
20260508225404 26 267 3.2 6.4 0.00 0.00 0.00 28 1008.8
20260508225306 26 267 3.2 6.4 0.00 0.00 0.00 28 1008.9
20260508225203 26 266 3.2 6.4 0.00 0.00 0.00 29 1008.9
20260508225103 26 266 3.2 8.0 0.00 0.00 0.00 29 1008.9
20260508225024 26 266 3.2 8.0 0.00 0.00 0.00 29 1008.8
20260508224903 26 265 3.2 8.0 0.00 0.00 0.00 30 1008.9
20260508224824 26 264 3.2 8.0 0.00 0.00 0.00 29 1008.8
20260508224703 26 264 3.2 9.7 0.00 0.00 0.00 29 1008.8
20260508224603 26 263 3.2 9.7 0.00 0.00 0.00 30 1008.8
20260508224503 26 263 3.2 9.7 0.00 0.00 0.00 29 1008.9
20260508224424 26 263 3.2 9.7 0.00 0.00 0.00 29 1008.8
20260508224324 26 263 4.8 9.7 0.00 0.00 0.00 31 1008.9
20260508224204 26 264 4.8 9.7 0.00 0.00 0.00 31 1008.9
20260508224104 26 264 3.2 9.7 0.00 0.00 0.00 32 1008.8
20260508224003 26 264 3.2 9.7 0.00 0.00 0.00 33 1008.8
20260508223904 26 264 3.2 9.7 0.00 0.00 0.00 34 1008.8
20260508223803 26 264 3.2 9.7 0.00 0.00 0.00 34 1008.8
20260508223704 26 267 3.2 8.0 0.00 0.00 0.00 33 1008.8
20260508223603 26 267 4.8 9.7 0.00 0.00 0.00 33 1008.7
20260508223504 26 264 4.8 9.7 0.00 0.00 0.00 33 1008.7
20260508223403 26 271 4.8 9.7 0.00 0.00 0.00 34 1008.8
20260508223324 26 273 4.8 9.7 0.00 0.00 0.00 34 1008.7
20260508223203 26 271 4.8 9.7 0.00 0.00 0.00 34 1008.8
20260508223124 26 272 4.8 9.7 0.00 0.00 0.00 34 1008.7
20260508223003 26 280 4.8 9.7 0.00 0.00 0.00 35 1008.7
20260508222903 26 280 4.8 9.7 0.00 0.00 0.00 34 1008.7
20260508222824 26 280 4.8 9.7 0.00 0.00 0.00 34 1008.7
20260508222703 26 277 4.8 9.7 0.00 0.00 0.00 34 1008.7
20260508222603 26 277 4.8 8.0 0.00 0.00 0.00 34 1008.7
20260508222524 26 280 4.8 9.7 0.00 0.00 0.00 34 1008.7
20260508222403 26 272 4.8 11.3 0.00 0.00 0.00 34 1008.7
20260508222306 26 270 4.8 11.3 0.00 0.00 0.00 34 1008.7
20260508222203 26 269 4.8 11.3 0.00 0.00 0.00 34 1008.8
20260508222103 26 266 4.8 14.5 0.00 0.00 0.00 35 1008.8
20260508222003 26 261 4.8 14.5 0.00 0.00 0.00 34 1008.8
20260508221903 26 260 4.8 14.5 0.00 0.00 0.00 34 1008.8
20260508221803 26 259 4.8 14.5 0.00 0.00 0.00 34 1008.8
20260508221703 26 258 4.8 14.5 0.00 0.00 0.00 34 1008.9
20260508221624 26 258 4.8 14.5 0.00 0.00 0.00 34 1008.9
20260508221525 26 257 4.8 14.5 0.00 0.00 0.00 34 1008.9
20260508221404 26 256 4.8 14.5 0.00 0.00 0.00 34 1008.8
20260508221303 26 256 4.8 14.5 0.00 0.00 0.00 34 1008.8
20260508221203 26 256 4.8 14.5 0.00 0.00 0.00 35 1008.8
20260508221103 26 255 3.2 9.7 0.00 0.00 0.00 34 1008.8
20260508221004 26 254 3.2 9.7 0.00 0.00 0.00 34 1008.9
20260508220904 26 252 3.2 9.7 0.00 0.00 0.00 33 1008.9
20260508220803 26 251 3.2 9.7 0.00 0.00 0.00 34 1008.9
20260508220703 26 251 3.2 9.7 0.00 0.00 0.00 35 1008.9
20260508220603 26 250 4.8 9.7 0.00 0.00 0.00 35 1008.9
20260508220504 26 250 4.8 9.7 0.00 0.00 0.00 35 1008.9
20260508220403 26 249 4.8 9.7 0.00 0.00 0.00 34 1008.9
20260508220303 26 248 4.8 9.7 0.00 0.00 0.00 34 1009.0
20260508220203 26 248 4.8 9.7 0.00 0.00 0.00 34 1008.9
20260508220103 26 248 4.8 9.7 0.00 0.00 0.00 34 1009.0
20260508220004 26 248 4.8 9.7 0.00 0.00 0.00 35 1009.0
20260508215903 26 249 4.8 9.7 0.00 0.00 0.00 34 1009.0
20260508215803 26 250 4.8 9.7 0.00 0.00 0.00 35 1008.9
20260508215703 26 251 3.2 8.0 0.00 0.00 0.00 34 1009.0
20260508215603 26 252 3.2 8.0 0.00 0.00 0.00 35 1008.9
20260508215503 26 256 3.2 8.0 0.00 0.00 0.00 34 1009.0
20260508215403 26 260 3.2 8.0 0.00 0.00 0.00 35 1009.0
20260508215306 26 265 3.2 8.0 0.00 0.00 0.00 35 1009.0
20260508215224 26 268 3.2 8.0 0.00 0.00 0.00 35 1009.1
20260508215104 26 274 3.2 8.0 0.00 0.00 0.00 35 1009.0
20260508215003 26 280 3.2 8.0 0.00 0.00 0.00 36 1009.1
20260508214904 26 281 4.8 8.0 0.00 0.00 0.00 36 1009.1
20260508214803 26 279 4.8 8.0 0.00 0.00 0.00 36 1009.1
20260508214703 26 277 4.8 8.0 0.00 0.00 0.00 37 1009.1
20260508214625 26 277 4.8 8.0 0.00 0.00 0.00 37 1009.2
20260508214503 26 275 4.8 8.0 0.00 0.00 0.00 36 1009.2
20260508214424 26 273 4.8 8.0 0.00 0.00 0.00 36 1009.1
20260508214325 26 268 4.8 8.0 0.00 0.00 0.00 36 1009.1
20260508214204 26 262 4.8 8.0 0.00 0.00 0.00 36 1009.1
20260508214103 26 260 4.8 8.0 0.00 0.00 0.00 36 1009.1
20260508214003 26 256 4.8 8.0 0.00 0.00 0.00 36 1009.1
20260508213925 26 254 4.8 8.0 0.00 0.00 0.00 35 1009.1
20260508213803 26 254 4.8 9.7 0.00 0.00 0.00 35 1009.1
20260508213703 26 256 4.8 9.7 0.00 0.00 0.00 36 1009.1
20260508213624 26 258 4.8 9.7 0.00 0.00 0.00 35 1009.1
20260508213503 26 263 4.8 9.7 0.00 0.00 0.00 35 1009.1
20260508213424 26 264 4.8 9.7 0.00 0.00 0.00 36 1009.2
20260508213303 26 267 4.8 9.7 0.00 0.00 0.00 36 1009.1
20260508213203 26 269 4.8 9.7 0.00 0.00 0.00 36 1009.1
20260508213103 26 269 4.8 9.7 0.00 0.00 0.00 37 1009.1
20260508213003 26 269 4.8 9.7 0.00 0.00 0.00 37 1009.1
20260508212903 26 269 4.8 9.7 0.00 0.00 0.00 37 1009.1
20260508212824 26 269 4.8 8.0 0.00 0.00 0.00 37 1009.1
20260508212704 26 267 4.8 8.0 0.00 0.00 0.00 37 1009.2
20260508212603 26 265 4.8 8.0 0.00 0.00 0.00 37 1009.2
20260508212503 26 263 4.8 11.3 0.00 0.00 0.00 37 1009.2
20260508212404 26 260 4.8 11.3 0.00 0.00 0.00 38 1009.3
20260508212306 26 259 4.8 11.3 0.00 0.00 0.00 37 1009.3
20260508212203 26 257 4.8 11.3 0.00 0.00 0.00 37 1009.3
20260508212103 26 256 4.8 11.3 0.00 0.00 0.00 37 1009.3
20260508212003 26 256 4.8 11.3 0.00 0.00 0.00 37 1009.3
20260508211903 26 257 4.8 11.3 0.00 0.00 0.00 37 1009.3
20260508211803 26 257 4.8 11.3 0.00 0.00 0.00 37 1009.3
20260508211703 26 258 4.8 11.3 0.00 0.00 0.00 38 1009.3
20260508211603 26 258 4.8 11.3 0.00 0.00 0.00 39 1009.3
20260508211524 26 258 4.8 11.3 0.00 0.00 0.00 39 1009.4
20260508211403 26 258 4.8 9.7 0.00 0.00 0.00 39 1009.4
20260508211303 26 260 4.8 9.7 0.00 0.00 0.00 39 1009.4
20260508211203 26 262 4.8 9.7 0.00 0.00 0.00 38 1009.5
20260508211103 26 264 4.8 9.7 0.00 0.00 0.00 38 1009.5
20260508211003 26 266 4.8 9.7 0.00 0.00 0.00 39 1009.5
20260508210904 26 267 4.8 9.7 0.00 0.00 0.00 40 1009.6
20260508210803 26 266 4.8 9.7 0.00 0.00 0.00 39 1009.5
20260508210703 27 259 4.8 9.7 0.00 0.00 0.00 39 1009.6
20260508210603 27 257 4.8 9.7 0.00 0.00 0.00 39 1009.6
20260508210503 27 258 4.8 9.7 0.00 0.00 0.00 38 1009.6
20260508210403 27 258 4.8 9.7 0.00 0.00 0.00 39 1009.6
20260508210303 27 257 4.8 9.7 0.00 0.00 0.00 39 1009.6
20260508210203 27 252 4.8 11.3 0.00 0.00 0.00 39 1009.6
20260508210103 27 249 4.8 11.3 0.00 0.00 0.00 39 1009.6
20260508210003 27 247 6.4 11.3 0.00 0.00 0.00 39 1009.6
20260508205904 27 245 6.4 11.3 0.00 0.00 0.00 39 1009.7
20260508205803 27 242 4.8 11.3 0.00 0.00 0.00 39 1009.7
20260508205703 27 245 4.8 11.3 0.00 0.00 0.00 38 1009.7
20260508205603 27 245 4.8 11.3 0.00 0.00 0.00 38 1009.7
20260508205503 27 242 4.8 11.3 0.00 0.00 0.00 39 1009.7
20260508205403 27 238 4.8 11.3 0.00 0.00 0.00 39 1009.7
20260508205306 27 234 4.8 11.3 0.00 0.00 0.00 39 1009.7
20260508205203 27 233 4.8 11.3 0.00 0.00 0.00 39 1009.7
20260508205103 27 231 4.8 11.3 0.00 0.00 0.00 40 1009.8
20260508205003 27 229 4.8 11.3 0.00 0.00 0.00 40 1009.8
20260508204903 27 226 4.8 11.3 0.00 0.00 0.00 40 1009.8
20260508204803 27 230 4.8 11.3 0.00 0.00 0.00 40 1009.9
20260508204704 27 232 4.8 11.3 0.00 0.00 0.00 40 1009.9
20260508204603 27 234 4.8 11.3 0.00 0.00 0.00 39 1009.8
20260508204524 27 235 4.8 11.3 0.00 0.00 0.00 39 1009.8
20260508204403 27 244 4.8 11.3 0.00 0.00 0.00 38 1009.8
20260508204324 27 248 4.8 11.3 0.00 0.00 0.00 38 1009.9
20260508204203 27 252 4.8 11.3 0.00 0.00 0.00 36 1009.9
20260508204103 27 254 4.8 11.3 0.00 0.00 0.00 37 1009.8
20260508204003 27 259 4.8 14.5 0.00 0.00 0.00 36 1009.9
20260508203904 26 258 4.8 14.5 0.00 0.00 0.00 36 1009.9
20260508203803 26 254 4.8 14.5 0.00 0.00 0.00 35 1009.9
20260508203703 26 251 6.4 14.5 0.00 0.00 0.00 33 1009.9
20260508203603 26 248 6.4 14.5 0.00 0.00 0.00 35 1009.9
20260508203503 26 246 6.4 14.5 0.00 0.00 0.00 35 1009.9
20260508203403 26 243 4.8 14.5 0.00 0.00 0.00 34 1010.0
20260508203303 26 240 4.8 14.5 0.00 0.00 0.00 35 1010.0
20260508203203 26 241 4.8 14.5 0.00 0.00 0.00 36 1010.0
20260508203103 26 242 4.8 14.5 0.00 0.00 0.00 34 1010.0
20260508203003 26 238 4.8 12.9 0.00 0.00 0.00 33 1010.0
20260508202924 26 235 4.8 11.3 0.00 0.00 0.00 35 1010.0
20260508202803 26 235 4.8 11.3 0.00 0.00 0.00 35 1010.1
20260508202703 26 234 4.8 11.3 0.00 0.00 0.00 34 1010.2
20260508202603 26 231 4.8 11.3 0.00 0.00 0.00 35 1010.2
20260508202503 26 226 4.8 11.3 0.00 0.00 0.00 35 1010.2
20260508202403 26 225 4.8 11.3 0.00 0.00 0.00 35 1010.2
20260508202306 26 223 4.8 11.3 0.00 0.00 0.00 35 1010.2
20260508202203 26 219 4.8 11.3 0.00 0.00 0.00 36 1010.3
20260508202103 26 214 4.8 11.3 0.00 0.00 0.00 34 1010.3
20260508202003 26 211 4.8 9.7 0.00 0.00 0.00 33 1010.3
20260508201924 26 211 4.8 9.7 0.00 0.00 0.00 34 1010.3
20260508201803 26 210 4.8 9.7 0.00 0.00 0.00 34 1010.4
20260508201703 26 210 4.8 9.7 0.00 0.00 0.00 33 1010.4
20260508201603 26 210 4.8 9.7 0.00 0.00 0.00 33 1010.4
20260508201503 26 209 4.8 8.0 0.00 0.00 0.00 33 1010.4
20260508201403 26 208 3.2 8.0 0.00 0.00 0.00 34 1010.4
20260508201303 26 206 4.8 8.0 0.00 0.00 0.00 34 1010.4
20260508201203 26 205 4.8 8.0 0.00 0.00 0.00 35 1010.4
20260508201103 26 204 4.8 8.0 0.00 0.00 0.00 36 1010.4
20260508201003 26 202 3.2 8.0 0.00 0.00 0.00 36 1010.4
20260508200904 26 199 3.2 8.0 0.00 0.00 0.00 37 1010.5
20260508200824 26 200 3.2 8.0 0.00 0.00 0.00 36 1010.5
20260508200724 26 201 3.2 8.0 0.00 0.00 0.00 37 1010.5
20260508200603 26 204 3.2 8.0 0.00 0.00 0.00 36 1010.5
20260508200503 26 208 3.2 8.0 0.00 0.00 0.00 36 1010.5
20260508200403 26 209 3.2 8.0 0.00 0.00 0.00 37 1010.5
20260508200324 26 210 3.2 8.0 0.00 0.00 0.00 37 1010.5
20260508200203 26 214 3.2 8.0 0.00 0.00 0.00 36 1010.5
20260508200103 26 218 3.2 6.4 0.00 0.00 0.00 37 1010.5
20260508200003 26 221 3.2 6.4 0.00 0.00 0.00 37 1010.5
20260508195903 26 224 3.2 6.4 0.00 0.00 0.00 37 1010.6
20260508195824 26 227 3.2 6.4 0.00 0.00 0.00 36 1010.6
20260508195703 26 233 3.2 6.4 0.00 0.00 0.00 35 1010.6
20260508195603 26 236 3.2 6.4 0.00 0.00 0.00 35 1010.7
20260508195503 26 237 3.2 6.4 0.00 0.00 0.00 36 1010.6
20260508195403 26 238 3.2 6.4 0.00 0.00 0.00 36 1010.6
20260508195306 26 239 3.2 6.4 0.00 0.00 0.00 36 1010.7
20260508195203 26 240 3.2 6.4 0.00 0.00 0.00 35 1010.6
20260508195103 26 242 3.2 6.4 0.00 0.00 0.00 34 1010.6
20260508195024 26 243 3.2 6.4 0.00 0.00 0.00 34 1010.7
20260508194903 26 246 3.2 8.0 0.00 0.00 0.00 34 1010.7
20260508194824 26 247 3.2 8.0 0.00 0.00 0.00 34 1010.7
20260508194703 26 248 4.8 9.7 0.00 0.00 0.00 34 1010.7
20260508194603 26 246 3.2 9.7 0.00 0.00 0.00 35 1010.7
20260508194503 26 244 3.2 9.7 0.00 0.00 0.00 34 1010.7
20260508194403 25 241 4.8 9.7 0.00 0.00 0.00 33 1010.7
20260508194303 25 238 4.8 9.7 0.00 0.00 0.00 33 1010.7
20260508194203 25 235 4.8 9.7 0.00 0.00 0.00 34 1010.7
20260508194103 25 234 4.8 9.7 0.00 0.00 0.00 34 1010.8
20260508194024 25 231 4.8 9.7 0.00 0.00 0.00 35 1010.8
20260508193903 25 226 4.8 9.7 0.00 0.00 0.00 34 1010.8
20260508193824 25 225 4.8 9.7 0.00 0.00 0.00 36 1010.9
20260508193703 25 219 3.2 9.7 0.00 0.00 0.00 36 1010.9
20260508193603 26 221 4.8 9.7 0.00 0.00 0.00 36 1010.9
20260508193503 26 225 4.8 9.7 0.00 0.00 0.00 35 1010.9
20260508193403 26 228 4.8 9.7 0.00 0.00 0.00 35 1010.9
20260508193303 25 234 4.8 9.7 0.00 0.00 0.00 35 1010.9
20260508193204 25 237 4.8 9.7 0.00 0.00 0.00 35 1010.9
20260508193103 25 240 4.8 9.7 0.00 0.00 0.00 35 1010.9
20260508193003 25 243 4.8 9.7 0.00 0.00 0.00 34 1010.9
20260508192903 25 244 4.8 9.7 0.00 0.00 0.00 35 1010.9
20260508192803 25 242 4.8 9.7 0.00 0.00 0.00 35 1010.9
20260508192703 25 239 4.8 9.7 0.00 0.00 0.00 36 1010.9
20260508192603 25 236 4.8 9.7 0.00 0.00 0.00 36 1010.9
20260508192524 25 234 3.2 9.7 0.00 0.00 0.00 36 1010.9
20260508192403 25 226 3.2 9.7 0.00 0.00 0.00 36 1010.9
20260508192306 25 219 3.2 9.7 0.00 0.00 0.00 36 1011.0
20260508192203 25 213 3.2 9.7 0.00 0.00 0.00 36 1011.0
20260508192103 25 211 3.2 8.0 0.00 0.00 0.00 36 1010.9
20260508192024 25 213 4.8 12.9 0.00 0.00 0.00 36 1010.9
20260508191903 25 214 4.8 12.9 0.00 0.00 0.00 38 1010.9
20260508191824 25 216 4.8 12.9 0.00 0.00 0.00 37 1010.9
20260508191703 25 219 4.8 14.5 0.00 0.00 0.00 38 1010.9
20260508191603 25 224 4.8 14.5 0.00 0.00 0.00 37 1011.0
20260508191503 25 230 4.8 14.5 0.00 0.00 0.00 38 1011.0
20260508191424 25 233 4.8 14.5 0.00 0.00 0.00 38 1011.0
20260508191303 25 245 4.8 14.5 0.00 0.00 0.00 39 1011.1
20260508191224 25 252 4.8 14.5 0.00 0.00 0.00 39 1011.0
20260508191103 25 256 4.8 14.5 0.00 0.00 0.00 39 1011.0
20260508191004 26 252 4.8 14.5 0.00 0.00 0.00 38 1011.0
20260508190903 26 253 4.8 14.5 0.00 0.00 0.00 39 1011.0
20260508190803 26 252 4.8 14.5 0.00 0.00 0.00 39 1011.0
20260508190703 26 255 4.8 14.5 0.00 0.00 0.00 38 1011.0
20260508190603 26 248 4.8 11.3 0.00 0.00 0.00 39 1011.0
20260508190503 26 239 4.8 11.3 0.00 0.00 0.00 38 1011.0
20260508190424 26 232 4.8 11.3 0.00 0.00 0.00 38 1011.0
20260508190303 26 224 4.8 11.3 0.00 0.00 0.00 36 1011.0
20260508190203 26 219 4.8 11.3 0.00 0.00 0.00 36 1011.0
20260508190103 26 220 4.8 11.3 0.00 0.00 0.00 35 1011.0
20260508190003 25 224 4.8 11.3 0.00 0.00 0.00 36 1011.0
20260508185903 25 226 4.8 11.3 0.00 0.00 0.00 35 1011.1
20260508185803 25 227 4.8 11.3 0.00 0.00 0.00 34 1011.1
20260508185703 25 230 6.4 11.3 0.00 0.00 0.00 35 1011.2
20260508185603 25 232 6.4 11.3 0.00 0.00 0.00 37 1011.1
20260508185503 25 233 6.4 11.3 0.00 0.00 0.00 38 1011.2
20260508185403 25 235 6.4 11.3 0.00 0.00 0.00 38 1011.3
20260508185324 25 236 6.4 11.3 0.00 0.00 0.00 36 1011.2
20260508185203 25 241 4.8 9.7 0.00 0.00 0.00 37 1011.3
20260508185104 25 251 4.8 9.7 0.00 0.00 0.00 37 1011.3
20260508185003 25 251 4.8 9.7 0.00 0.00 0.00 38 1011.3
20260508184903 25 256 4.8 9.7 0.00 0.00 0.00 39 1011.3
20260508184803 25 267 4.8 9.7 0.00 0.00 0.00 38 1011.4
20260508184703 25 270 4.8 9.7 0.00 0.00 0.00 39 1011.4
20260508184604 25 271 4.8 9.7 0.00 0.00 0.00 38 1011.5
20260508184504 25 273 3.2 9.7 0.00 0.00 0.00 39 1011.4
20260508184424 25 276 3.2 9.7 0.00 0.00 0.00 39 1011.4
20260508184324 25 278 3.2 9.7 0.00 0.00 0.00 38 1011.5
20260508184204 25 271 3.2 9.7 0.00 0.00 0.00 39 1011.4
20260508184124 25 265 3.2 9.7 0.00 0.00 0.00 38 1011.4
20260508184003 25 258 3.2 9.7 0.00 0.00 0.00 39 1011.5
20260508183903 25 252 3.2 9.7 0.00 0.00 0.00 39 1011.5
20260508183803 25 238 3.2 8.0 0.00 0.00 0.00 39 1011.5
20260508183703 25 237 3.2 8.0 0.00 0.00 0.00 39 1011.5
20260508183603 25 239 3.2 8.0 0.00 0.00 0.00 39 1011.6
20260508183503 25 240 3.2 8.0 0.00 0.00 0.00 38 1011.6
20260508183403 25 239 3.2 8.0 0.00 0.00 0.00 39 1011.6
20260508183303 25 239 1.6 6.4 0.00 0.00 0.00 39 1011.7
20260508183203 25 240 1.6 6.4 0.00 0.00 0.00 38 1011.7
20260508183103 25 240 1.6 4.8 0.00 0.00 0.00 38 1011.7
20260508183003 25 241 3.2 6.4 0.00 0.00 0.00 39 1011.6
20260508182903 25 241 3.2 8.0 0.00 0.00 0.00 39 1011.7
20260508182824 25 241 3.2 8.0 0.00 0.00 0.00 39 1011.7
20260508182703 25 241 3.2 8.0 0.00 0.00 0.00 39 1011.7
20260508182603 25 241 3.2 8.0 0.00 0.00 0.00 39 1011.8
20260508182503 25 242 3.2 8.0 0.00 0.00 0.00 38 1011.7
20260508182403 25 242 3.2 8.0 0.00 0.00 0.00 37 1011.8
20260508182324 25 242 3.2 8.0 0.00 0.00 0.00 38 1011.8
20260508182203 25 242 3.2 8.0 0.00 0.00 0.00 38 1011.7
20260508182103 25 240 3.2 8.0 0.00 0.00 0.00 37 1011.8
20260508182003 25 237 3.2 8.0 0.00 0.00 0.00 38 1011.9
20260508181924 25 236 3.2 8.0 0.00 0.00 0.00 37 1011.9
20260508181803 25 232 3.2 8.0 0.00 0.00 0.00 37 1011.9
20260508181724 25 231 3.2 8.0 0.00 0.00 0.00 38 1011.9
20260508181603 25 229 3.2 8.0 0.00 0.00 0.00 38 1011.9
20260508181524 25 229 3.2 8.0 0.00 0.00 0.00 38 1011.9
20260508181403 25 225 3.2 8.0 0.00 0.00 0.00 36 1011.9
20260508181324 25 222 3.2 8.0 0.00 0.00 0.00 37 1012.0
20260508181203 25 217 1.6 6.4 0.00 0.00 0.00 36 1012.0
20260508181104 25 219 1.6 6.4 0.00 0.00 0.00 36 1012.1
20260508181003 25 223 1.6 6.4 0.00 0.00 0.00 35 1012.0
20260508180903 25 226 3.2 6.4 0.00 0.00 0.00 35 1012.0
20260508180824 25 227 3.2 6.4 0.00 0.00 0.00 35 1012.0
20260508180724 25 230 3.2 6.4 0.00 0.00 0.00 35 1012.0
20260508180624 25 233 3.2 6.4 0.00 0.00 0.00 36 1012.0
20260508180524 25 236 3.2 8.0 0.00 0.00 0.00 36 1012.0
20260508180424 25 239 4.8 8.0 0.00 0.00 0.00 36 1012.1
20260508180303 24 240 4.8 8.0 0.00 0.00 0.00 35 1012.1
20260508180203 24 240 3.2 8.0 0.00 0.00 0.00 35 1012.1
20260508180103 24 241 3.2 8.0 0.00 0.00 0.00 36 1012.1
20260508180003 24 242 3.2 8.0 0.00 0.00 0.00 35 1012.1
20260508175903 24 243 3.2 8.0 0.00 0.00 0.00 37 1012.1
20260508175803 24 241 3.2 8.0 0.00 0.00 0.00 37 1012.1
20260508175703 25 238 3.2 8.0 0.00 0.00 0.00 37 1012.1
20260508175603 25 235 3.2 8.0 0.00 0.00 0.00 37 1012.1
20260508175503 25 231 3.2 9.7 0.00 0.00 0.00 36 1012.1
20260508175403 25 234 3.2 9.7 0.00 0.00 0.00 35 1012.1
20260508175306 25 239 3.2 9.7 0.00 0.00 0.00 35 1012.1
20260508175203 24 239 3.2 9.7 0.00 0.00 0.00 35 1012.1
20260508175103 24 239 3.2 9.7 0.00 0.00 0.00 35 1012.2
20260508175003 24 238 3.2 9.7 0.00 0.00 0.00 35 1012.2
20260508174924 24 238 4.8 9.7 0.00 0.00 0.00 36 1012.1
20260508174803 24 239 4.8 9.7 0.00 0.00 0.00 35 1012.2
20260508174703 24 240 4.8 9.7 0.00 0.00 0.00 34 1012.2
20260508174603 24 241 4.8 9.7 0.00 0.00 0.00 34 1012.2
20260508174503 24 241 3.2 9.7 0.00 0.00 0.00 35 1012.2
20260508174403 25 237 3.2 9.7 0.00 0.00 0.00 34 1012.2
20260508174303 24 236 3.2 8.0 0.00 0.00 0.00 33 1012.2
20260508174203 24 234 3.2 8.0 0.00 0.00 0.00 32 1012.3
20260508174103 24 231 3.2 8.0 0.00 0.00 0.00 30 1012.3
20260508174003 24 226 3.2 8.0 0.00 0.00 0.00 28 1012.3
20260508173903 24 216 3.2 9.7 0.00 0.00 0.00 31 1012.3
20260508173803 23 205 4.8 9.7 0.00 0.00 0.00 31 1012.3
20260508173703 23 196 4.8 9.7 0.00 0.00 0.00 31 1012.3
20260508173603 23 187 4.8 9.7 0.00 0.00 0.00 31 1012.3
20260508173503 23 185 4.8 9.7 0.00 0.00 0.00 30 1012.3
20260508173424 23 183 4.8 9.7 0.00 0.00 0.00 30 1012.3
20260508173303 23 180 4.8 11.3 0.00 0.00 0.00 27 1012.3
20260508173203 23 183 4.8 11.3 0.00 0.00 0.00 25 1012.3
20260508173124 23 184 4.8 11.3 0.00 0.00 0.00 29 1012.3
20260508173025 23 185 4.8 11.3 0.00 0.00 0.00 31 1012.3
20260508172903 23 188 4.8 11.3 0.00 0.00 0.00 31 1012.3
20260508172803 23 192 4.8 11.3 0.00 0.00 0.00 30 1012.4
20260508172703 23 198 4.8 11.3 0.00 0.00 0.00 30 1012.4
20260508172603 23 201 4.8 11.3 0.00 0.00 0.00 31 1012.4
20260508172503 23 201 4.8 11.3 0.00 0.00 0.00 34 1012.4
20260508172403 23 198 4.8 11.3 0.00 0.00 0.00 33 1012.4
20260508172307 23 197 4.8 9.7 0.00 0.00 0.00 33 1012.4
20260508172203 23 198 4.8 8.0 0.00 0.00 0.00 33 1012.4
20260508172103 23 203 4.8 9.7 0.00 0.00 0.00 31 1012.4
20260508172003 23 206 4.8 9.7 0.00 0.00 0.00 32 1012.4
20260508171903 23 204 4.8 9.7 0.00 0.00 0.00 31 1012.4
20260508171803 23 202 4.8 9.7 0.00 0.00 0.00 31 1012.4
20260508171703 23 197 4.8 9.7 0.00 0.00 0.00 30 1012.4
20260508171603 23 197 4.8 9.7 0.00 0.00 0.00 30 1012.4
20260508171503 23 194 4.8 9.7 0.00 0.00 0.00 31 1012.5
20260508171403 23 193 4.8 11.3 0.00 0.00 0.00 29 1012.4
20260508171303 23 191 4.8 11.3 0.00 0.00 0.00 29 1012.5
20260508171203 23 185 4.8 11.3 0.00 0.00 0.00 31 1012.5
20260508171103 23 177 4.8 11.3 0.00 0.00 0.00 31 1012.5
20260508171003 23 178 4.8 11.3 0.00 0.00 0.00 30 1012.6
20260508170903 23 180 4.8 11.3 0.00 0.00 0.00 30 1012.6
20260508170803 23 178 4.8 11.3 0.00 0.00 0.00 31 1012.6
20260508170703 23 179 4.8 11.3 0.00 0.00 0.00 28 1012.6
20260508170603 23 176 4.8 11.3 0.00 0.00 0.00 29 1012.6
20260508170503 23 175 4.8 11.3 0.00 0.00 0.00 30 1012.6
20260508170403 22 168 4.8 9.7 0.00 0.00 0.00 30 1012.7
20260508170303 22 164 4.8 9.7 0.00 0.00 0.00 30 1012.7
20260508170203 22 163 4.8 9.7 0.00 0.00 0.00 30 1012.6
20260508170103 22 161 4.8 9.7 0.00 0.00 0.00 30 1012.6
20260508170003 22 153 4.8 9.7 0.00 0.00 0.00 31 1012.7
20260508165924 22 149 4.8 9.7 0.00 0.00 0.00 31 1012.7
20260508165824 22 149 4.8 9.7 0.00 0.00 0.00 27 1012.6
20260508165703 22 149 4.8 9.7 0.00 0.00 0.00 27 1012.6
20260508165603 22 150 4.8 9.7 0.00 0.00 0.00 28 1012.6
20260508165503 22 151 4.8 9.7 0.00 0.00 0.00 30 1012.7
20260508165403 22 157 4.8 9.7 0.00 0.00 0.00 29 1012.6
20260508165306 22 161 4.8 9.7 0.00 0.00 0.00 32 1012.7
20260508165224 22 161 4.8 9.7 0.00 0.00 0.00 31 1012.7
20260508165103 22 161 3.2 9.7 0.00 0.00 0.00 31 1012.8
20260508165004 22 162 3.2 9.7 0.00 0.00 0.00 31 1012.7
20260508164903 22 162 3.2 9.7 0.00 0.00 0.00 32 1012.7
20260508164803 22 161 3.2 9.7 0.00 0.00 0.00 32 1012.6
20260508164703 22 160 3.2 9.7 0.00 0.00 0.00 31 1012.7
20260508164603 22 158 3.2 9.7 0.00 0.00 0.00 29 1012.6
20260508164503 22 156 3.2 8.0 0.00 0.00 0.00 30 1012.7
20260508164403 22 150 3.2 8.0 0.00 0.00 0.00 31 1012.7
20260508164303 22 148 3.2 8.0 0.00 0.00 0.00 29 1012.8
20260508164224 22 149 3.2 8.0 0.00 0.00 0.00 29 1012.9
20260508164103 22 150 3.2 8.0 0.00 0.00 0.00 30 1012.9
20260508164024 22 150 3.2 8.0 0.00 0.00 0.00 30 1012.9
20260508163903 22 150 3.2 8.0 0.00 0.00 0.00 29 1012.9
20260508163803 22 151 3.2 8.0 0.00 0.00 0.00 28 1012.9
20260508163703 22 151 3.2 8.0 0.00 0.00 0.00 27 1012.9
20260508163624 22 152 3.2 8.0 0.00 0.00 0.00 27 1012.9
20260508163503 22 152 3.2 8.0 0.00 0.00 0.00 29 1012.9
20260508163403 22 152 3.2 8.0 0.00 0.00 0.00 28 1012.9
20260508163324 22 151 3.2 8.0 0.00 0.00 0.00 29 1013.0
20260508163203 22 151 3.2 8.0 0.00 0.00 0.00 29 1013.0
20260508163124 22 149 3.2 8.0 0.00 0.00 0.00 30 1013.1
20260508163003 22 148 1.6 6.4 0.00 0.00 0.00 30 1013.1
20260508162903 22 147 1.6 6.4 0.00 0.00 0.00 29 1013.1
20260508162803 22 146 1.6 6.4 0.00 0.00 0.00 31 1013.2
20260508162703 22 142 1.6 6.4 0.00 0.00 0.00 30 1013.2
20260508162624 22 141 1.6 6.4 0.00 0.00 0.00 30 1013.2
20260508162524 22 137 1.6 6.4 0.00 0.00 0.00 30 1013.2
20260508162424 22 137 1.6 6.4 0.00 0.00 0.00 31 1013.2
20260508162306 22 132 1.6 6.4 0.00 0.00 0.00 29 1013.2
20260508162224 22 128 1.6 6.4 0.00 0.00 0.00 27 1013.2
20260508162103 22 124 1.6 3.2 0.00 0.00 0.00 28 1013.3
20260508162003 22 124 1.6 3.2 0.00 0.00 0.00 28 1013.3
20260508161903 22 124 1.6 3.2 0.00 0.00 0.00 28 1013.3
20260508161803 22 124 1.6 3.2 0.00 0.00 0.00 27 1013.3
20260508161704 22 124 1.6 3.2 0.00 0.00 0.00 29 1013.3
20260508161604 22 124 1.6 3.2 0.00 0.00 0.00 29 1013.3
20260508161503 22 123 1.6 4.8 0.00 0.00 0.00 29 1013.3
20260508161424 22 122 1.6 4.8 0.00 0.00 0.00 30 1013.3
20260508161303 22 120 1.6 4.8 0.00 0.00 0.00 29 1013.3
20260508161203 22 118 1.6 4.8 0.00 0.00 0.00 28 1013.3
20260508161124 22 118 1.6 4.8 0.00 0.00 0.00 27 1013.3
20260508161003 22 116 3.2 4.8 0.00 0.00 0.00 30 1013.4
20260508160903 22 115 3.2 4.8 0.00 0.00 0.00 31 1013.4
20260508160803 22 113 3.2 4.8 0.00 0.00 0.00 31 1013.4
20260508160703 22 112 3.2 4.8 0.00 0.00 0.00 31 1013.4
20260508160603 22 111 1.6 4.8 0.00 0.00 0.00 31 1013.4
20260508160503 22 109 1.6 4.8 0.00 0.00 0.00 30 1013.4
20260508160403 22 109 1.6 4.8 0.00 0.00 0.00 30 1013.5
20260508160324 22 110 1.6 4.8 0.00 0.00 0.00 30 1013.5
20260508160203 22 111 1.6 4.8 0.00 0.00 0.00 28 1013.5
20260508160103 22 113 1.6 4.8 0.00 0.00 0.00 29 1013.5
20260508160003 22 116 1.6 4.8 0.00 0.00 0.00 29 1013.5
20260508155924 22 119 1.6 4.8 0.00 0.00 0.00 29 1013.5
20260508155803 22 128 1.6 4.8 0.00 0.00 0.00 29 1013.5
20260508155703 22 132 3.2 6.4 0.00 0.00 0.00 29 1013.5
20260508155603 22 143 3.2 6.4 0.00 0.00 0.00 28 1013.5
20260508155524 22 144 3.2 6.4 0.00 0.00 0.00 28 1013.5
20260508155424 22 151 3.2 6.4 0.00 0.00 0.00 31 1013.5
20260508155306 22 161 1.6 6.4 0.00 0.00 0.00 28 1013.5
20260508155203 22 169 1.6 6.4 0.00 0.00 0.00 31 1013.5
20260508155103 22 175 1.6 6.4 0.00 0.00 0.00 33 1013.4
20260508155003 22 183 1.6 6.4 0.00 0.00 0.00 33 1013.4
20260508154903 22 190 1.6 6.4 0.00 0.00 0.00 32 1013.4
20260508154803 22 199 1.6 6.4 0.00 0.00 0.00 31 1013.3
20260508154703 22 215 1.6 6.4 0.00 0.00 0.00 30 1013.3
20260508154603 22 217 1.6 3.2 0.00 0.00 0.00 29 1013.3
20260508154503 22 217 1.6 3.2 0.00 0.00 0.00 29 1013.3
20260508154424 22 217 1.6 3.2 0.00 0.00 0.00 26 1013.4
20260508154324 22 217 1.6 3.2 0.00 0.00 0.00 25 1013.4
20260508154203 22 217 1.6 3.2 0.00 0.00 0.00 23 1013.4
20260508154103 21 217 1.6 3.2 0.00 0.00 0.00 22 1013.5
20260508154003 21 217 0.0 3.2 0.00 0.00 0.00 22 1013.4
20260508153924 21 217 0.0 3.2 0.00 0.00 0.00 23 1013.4
20260508153803 21 217 0.0 3.2 0.00 0.00 0.00 19 1013.5
20260508153703 21 217 0.0 3.2 0.00 0.00 0.00 17 1013.5
20260508153603 21 0 0.0 1.6 0.00 0.00 0.00 15 1013.5
20260508153503 21 0 0.0 0.0 0.00 0.00 0.00 17 1013.5
20260508153403 21 0 0.0 0.0 0.00 0.00 0.00 19 1013.5
20260508153324 21 0 0.0 0.0 0.00 0.00 0.00 17 1013.5
20260508153203 21 0 0.0 0.0 0.00 0.00 0.00 14 1013.5
20260508153103 21 0 0.0 0.0 0.00 0.00 0.00 15 1013.5
20260508153003 21 0 0.0 0.0 0.00 0.00 0.00 15 1013.4
20260508152924 21 0 0.0 0.0 0.00 0.00 0.00 13 1013.5
20260508152803 20 0 0.0 0.0 0.00 0.00 0.00 12 1013.4
20260508152703 20 0 0.0 0.0 0.00 0.00 0.00 18 1013.5
20260508152603 20 0 0.0 0.0 0.00 0.00 0.00 16 1013.5
20260508152503 20 0 0.0 0.0 0.00 0.00 0.00 16 1013.5
20260508152403 20 0 0.0 0.0 0.00 0.00 0.00 16 1013.5
20260508152306 20 0 0.0 0.0 0.00 0.00 0.00 16 1013.6
20260508152203 20 0 0.0 0.0 0.00 0.00 0.00 16 1013.5
20260508152124 20 0 0.0 0.0 0.00 0.00 0.00 15 1013.6
20260508152003 20 0 0.0 0.0 0.00 0.00 0.00 15 1013.6
20260508151903 20 0 0.0 0.0 0.00 0.00 0.00 13 1013.6
20260508151803 20 0 0.0 0.0 0.00 0.00 0.00 13 1013.6
20260508151703 20 0 0.0 0.0 0.00 0.00 0.00 12 1013.6
20260508151603 20 0 0.0 0.0 0.00 0.00 0.00 11 1013.6
20260508151503 20 222 0.0 3.2 0.00 0.00 0.00 13 1013.6
20260508151403 20 222 0.0 3.2 0.00 0.00 0.00 14 1013.6
20260508151303 20 223 1.6 4.8 0.00 0.00 0.00 13 1013.7
20260508151203 20 223 1.6 4.8 0.00 0.00 0.00 14 1013.7
20260508151124 20 223 1.6 4.8 0.00 0.00 0.00 13 1013.7
20260508151003 20 224 1.6 4.8 0.00 0.00 0.00 13 1013.8
20260508150924 20 224 1.6 4.8 0.00 0.00 0.00 12 1013.8
20260508150804 20 225 1.6 6.4 0.00 0.00 0.00 11 1013.8
20260508150703 20 225 1.6 6.4 0.00 0.00 0.00 10 1013.8
20260508150603 20 225 3.2 6.4 0.00 0.00 0.00 9 1013.8
20260508150503 20 225 1.6 6.4 0.00 0.00 0.00 8 1013.6
20260508150403 20 225 3.2 6.4 0.00 0.00 0.00 8 1013.7
20260508150303 20 226 3.2 6.4 0.00 0.00 0.00 6 1013.7
20260508150203 20 226 3.2 6.4 0.00 0.00 0.00 9 1013.7
20260508150103 20 226 3.2 6.4 0.00 0.00 0.00 10 1013.7
20260508150004 20 226 3.2 6.4 0.00 0.00 0.00 11 1013.8
20260508145903 20 226 3.2 6.4 0.00 0.00 0.00 11 1013.8
20260508145803 20 226 1.6 4.8 0.00 0.00 0.00 12 1013.8
20260508145703 20 226 1.6 6.4 0.00 0.00 0.00 12 1013.8
20260508145604 20 226 3.2 6.4 0.00 0.00 0.00 12 1013.8
20260508145503 20 227 3.2 6.4 0.00 0.00 0.00 12 1013.9
20260508145403 20 227 3.2 6.4 0.00 0.00 0.00 8 1013.8
20260508145306 20 228 3.2 6.4 0.00 0.00 0.00 6 1013.8
20260508145203 20 229 3.2 6.4 0.00 0.00 0.00 6 1013.6
20260508145103 19 230 3.2 6.4 0.00 0.00 0.00 5 1013.6
20260508145003 19 231 3.2 6.4 0.00 0.00 0.00 4 1013.6
20260508144903 19 233 3.2 6.4 0.00 0.00 0.00 6 1013.6
20260508144803 19 234 3.2 8.0 0.00 0.00 0.00 8 1013.5
20260508144724 19 236 3.2 8.0 0.00 0.00 0.00 7 1013.6
20260508144603 19 238 3.2 8.0 0.00 0.00 0.00 5 1013.6
20260508144503 19 241 3.2 8.0 0.00 0.00 0.00 5 1013.6
20260508144424 19 242 3.2 8.0 0.00 0.00 0.00 5 1013.5
20260508144303 19 243 3.2 8.0 0.00 0.00 0.00 6 1013.6
20260508144203 19 245 3.2 8.0 0.00 0.00 0.00 4 1013.5
20260508144124 19 246 3.2 8.0 0.00 0.00 0.00 5 1013.5
20260508144024 19 247 3.2 8.0 0.00 0.00 0.00 2 1013.5
20260508143903 19 250 3.2 8.0 0.00 0.00 0.00 1 1013.5
20260508143803 19 250 3.2 8.0 0.00 0.00 0.00 1 1013.4
20260508143703 18 250 3.2 8.0 0.00 0.00 0.00 1 1013.4
20260508143624 18 250 3.2 8.0 0.00 0.00 0.00 1 1013.4
20260508143503 18 250 4.8 8.0 0.00 0.00 0.00 1 1013.4
20260508143403 18 251 4.8 8.0 0.00 0.00 0.00 1 1013.5
20260508143303 18 251 4.8 8.0 0.00 0.00 0.00 1 1013.5
20260508143203 18 252 4.8 8.0 0.00 0.00 0.00 1 1013.5
20260508143103 18 253 3.2 8.0 0.00 0.00 0.00 1 1013.6
20260508143003 18 254 3.2 8.0 0.00 0.00 0.00 1 1013.6
20260508142903 18 256 3.2 8.0 0.00 0.00 0.00 1 1013.6
20260508142803 18 257 3.2 8.0 0.00 0.00 0.00 1 1013.6
20260508142703 18 259 3.2 8.0 0.00 0.00 0.00 1 1013.6
20260508142603 18 261 3.2 8.0 0.00 0.00 0.00 1 1013.6
20260508142524 18 264 3.2 6.4 0.00 0.00 0.00 1 1013.6
20260508142404 18 267 3.2 6.4 0.00 0.00 0.00 1 1013.7
20260508142306 18 266 3.2 8.0 0.00 0.00 0.00 1 1013.7
20260508142203 18 259 3.2 8.0 0.00 0.00 0.00 1 1013.8
20260508142103 18 256 3.2 8.0 0.00 0.00 0.00 1 1013.8
20260508142003 18 251 3.2 8.0 0.00 0.00 0.00 1 1013.8
20260508141903 18 246 3.2 8.0 0.00 0.00 0.00 1 1013.8
20260508141803 18 241 3.2 8.0 0.00 0.00 0.00 1 1013.8
20260508141703 18 234 3.2 8.0 0.00 0.00 0.00 1 1013.8
20260508141603 18 229 3.2 8.0 0.00 0.00 0.00 1 1013.8
20260508141503 18 225 3.2 8.0 0.00 0.00 0.00 1 1013.8
20260508141403 18 220 3.2 8.0 0.00 0.00 0.00 1 1013.9
20260508141303 18 214 3.2 6.4 0.00 0.00 0.00 1 1013.9
20260508141203 18 214 3.2 6.4 0.00 0.00 0.00 1 1013.9
20260508141124 18 214 3.2 6.4 0.00 0.00 0.00 1 1013.8
20260508141024 18 214 3.2 6.4 0.00 0.00 0.00 1 1013.9
20260508140903 18 214 3.2 6.4 0.00 0.00 0.00 1 1013.8
20260508140824 18 214 3.2 6.4 0.00 0.00 0.00 1 1013.9
20260508140703 18 214 3.2 6.4 0.00 0.00 0.00 1 1013.8
20260508140603 18 214 3.2 6.4 0.00 0.00 0.00 1 1013.8
20260508140503 18 212 3.2 6.4 0.00 0.00 0.00 1 1013.9
20260508140403 18 209 3.2 6.4 0.00 0.00 0.00 1 1013.9
20260508140303 18 208 3.2 6.4 0.00 0.00 0.00 1 1013.9
20260508140203 18 205 3.2 6.4 0.00 0.00 0.00 1 1013.8
20260508140103 18 203 1.6 6.4 0.00 0.00 0.00 1 1013.8
20260508140004 18 202 3.2 6.4 0.00 0.00 0.00 1 1013.8
20260508135903 18 199 3.2 6.4 0.00 0.00 0.00 1 1013.9
20260508135803 18 198 3.2 6.4 0.00 0.00 0.00 1 1013.9
20260508135703 18 196 3.2 6.4 0.00 0.00 0.00 1 1013.9
20260508135603 18 193 3.2 6.4 0.00 0.00 0.00 1 1014.0
20260508135503 18 191 1.6 4.8 0.00 0.00 0.00 1 1014.1
20260508135403 18 191 1.6 4.8 0.00 0.00 0.00 1 1014.1
20260508135306 18 191 1.6 4.8 0.00 0.00 0.00 1 1014.1
20260508135224 18 191 3.2 4.8 0.00 0.00 0.00 1 1014.1
20260508135103 18 191 3.2 4.8 0.00 0.00 0.00 1 1014.2
20260508135003 17 191 3.2 6.4 0.00 0.00 0.00 1 1014.2
20260508134903 18 191 3.2 6.4 0.00 0.00 0.00 1 1014.2
20260508134803 18 191 3.2 6.4 0.00 0.00 0.00 1 1014.2
20260508134703 18 191 3.2 6.4 0.00 0.00 0.00 1 1014.2
20260508134603 18 191 3.2 6.4 0.00 0.00 0.00 1 1014.2
20260508134524 18 191 3.2 6.4 0.00 0.00 0.00 1 1014.2
20260508134403 17 191 3.2 6.4 0.00 0.00 0.00 1 1014.2
20260508134303 17 191 3.2 6.4 0.00 0.00 0.00 1 1014.2
20260508134203 17 189 3.2 8.0 0.00 0.00 0.00 1 1014.2
20260508134103 17 186 3.2 8.0 0.00 0.00 0.00 1 1014.2
20260508134003 17 184 3.2 8.0 0.00 0.00 0.00 1 1014.2
20260508133903 17 181 3.2 8.0 0.00 0.00 0.00 1 1014.2
20260508133824 17 179 3.2 8.0 0.00 0.00 0.00 1 1014.1
20260508133703 17 177 3.2 8.0 0.00 0.00 0.00 1 1014.1
20260508133624 17 176 3.2 8.0 0.00 0.00 0.00 1 1014.1
20260508133524 17 174 3.2 8.0 0.00 0.00 0.00 1 1014.2
20260508133403 17 171 3.2 8.0 0.00 0.00 0.00 1 1014.2
20260508133303 17 168 3.2 8.0 0.00 0.00 0.00 1 1014.2
20260508133203 17 165 3.2 6.4 0.00 0.00 0.00 1 1014.2
20260508133103 17 165 3.2 6.4 0.00 0.00 0.00 1 1014.2
20260508133003 17 164 3.2 6.4 0.00 0.00 0.00 1 1014.2
20260508132903 17 164 3.2 6.4 0.00 0.00 0.00 1 1014.2
20260508132803 17 163 3.2 6.4 0.00 0.00 0.00 1 1014.1
20260508132703 17 163 3.2 6.4 0.00 0.00 0.00 1 1014.1
20260508132603 17 162 3.2 6.4 0.00 0.00 0.00 1 1014.1
20260508132524 17 162 3.2 6.4 0.00 0.00 0.00 1 1014.1
20260508132403 17 161 3.2 6.4 0.00 0.00 0.00 1 1014.0
20260508132306 17 161 3.2 6.4 0.00 0.00 0.00 1 1014.0
20260508132203 17 160 3.2 6.4 0.00 0.00 0.00 1 1014.1
20260508132103 17 159 3.2 6.4 0.00 0.00 0.00 1 1014.0
20260508132003 17 159 3.2 6.4 0.00 0.00 0.00 1 1014.0
20260508131924 17 158 3.2 6.4 0.00 0.00 0.00 1 1014.0
20260508131803 17 158 3.2 6.4 0.00 0.00 0.00 1 1014.0
20260508131703 17 158 3.2 6.4 0.00 0.00 0.00 1 1014.0
20260508131624 17 158 3.2 6.4 0.00 0.00 0.00 1 1014.1
20260508131503 17 159 1.6 4.8 0.00 0.00 0.00 1 1014.1
20260508131403 17 161 3.2 6.4 0.00 0.00 0.00 1 1014.1
20260508131303 17 162 3.2 6.4 0.00 0.00 0.00 1 1014.1
20260508131203 17 163 3.2 6.4 0.00 0.00 0.00 1 1014.1
20260508131103 17 164 3.2 6.4 0.00 0.00 0.00 1 1014.1
20260508131003 17 164 3.2 6.4 0.00 0.00 0.00 1 1014.1
20260508130903 17 166 3.2 8.0 0.00 0.00 0.00 1 1014.1
20260508130803 17 167 3.2 8.0 0.00 0.00 0.00 1 1014.1
20260508130703 17 170 3.2 9.7 0.00 0.00 0.00 1 1014.0
20260508130624 17 169 3.2 9.7 0.00 0.00 0.00 1 1014.0
20260508130503 17 167 3.2 9.7 0.00 0.00 0.00 1 1014.0
20260508130403 17 165 3.2 9.7 0.00 0.00 0.00 1 1013.9
20260508130303 17 168 3.2 9.7 0.00 0.00 0.00 1 1013.9
20260508130203 17 170 3.2 9.7 0.00 0.00 0.00 1 1013.9
20260508130103 17 172 4.8 9.7 0.00 0.00 0.00 1 1013.9
20260508130003 17 174 4.8 9.7 0.00 0.00 0.00 1 1013.9
20260508125903 17 175 3.2 9.7 0.00 0.00 0.00 1 1013.9
20260508125824 17 175 3.2 9.7 0.00 0.00 0.00 1 1014.0
20260508125703 17 174 3.2 9.7 0.00 0.00 0.00 1 1014.0
20260508125624 17 176 3.2 9.7 0.00 0.00 0.00 1 1014.1
20260508125503 17 178 3.2 9.7 0.00 0.00 0.00 1 1014.1
20260508125403 17 180 3.2 9.7 0.00 0.00 0.00 1 1014.1
20260508125306 17 178 3.2 9.7 0.00 0.00 0.00 1 1014.2
20260508125224 17 177 3.2 9.7 0.00 0.00 0.00 1 1014.2
20260508125103 17 178 3.2 9.7 0.00 0.00 0.00 1 1014.2
20260508125024 17 177 3.2 9.7 0.00 0.00 0.00 1 1014.2
20260508124903 17 176 3.2 9.7 0.00 0.00 0.00 1 1014.2
20260508124803 17 178 4.8 9.7 0.00 0.00 0.00 1 1014.2
20260508124703 17 176 4.8 9.7 0.00 0.00 0.00 1 1014.2
20260508124603 17 173 4.8 9.7 0.00 0.00 0.00 1 1014.2
20260508124503 17 171 4.8 9.7 0.00 0.00 0.00 1 1014.2
20260508124403 17 168 4.8 9.7 0.00 0.00 0.00 1 1014.1
20260508124303 17 166 4.8 9.7 0.00 0.00 0.00 1 1014.1
20260508124203 17 164 4.8 9.7 0.00 0.00 0.00 1 1014.1
20260508124103 17 161 4.8 9.7 0.00 0.00 0.00 1 1014.1
20260508124024 17 158 4.8 9.7 0.00 0.00 0.00 1 1014.1
20260508123903 17 154 4.8 9.7 0.00 0.00 0.00 1 1014.1
20260508123803 17 148 3.2 8.0 0.00 0.00 0.00 1 1014.2
20260508123703 17 146 3.2 8.0 0.00 0.00 0.00 1 1014.3
20260508123603 17 147 3.2 8.0 0.00 0.00 0.00 1 1014.3
20260508123524 17 146 3.2 8.0 0.00 0.00 0.00 1 1014.3
20260508123403 17 145 3.2 4.8 0.00 0.00 0.00 1 1014.3
20260508123303 17 146 3.2 4.8 0.00 0.00 0.00 1 1014.3
20260508123224 17 147 3.2 4.8 0.00 0.00 0.00 1 1014.3
20260508123103 17 149 3.2 4.8 0.00 0.00 0.00 1 1014.4
20260508123025 17 149 3.2 4.8 0.00 0.00 0.00 1 1014.4
20260508122903 17 150 3.2 4.8 0.00 0.00 0.00 1 1014.3
20260508122803 17 151 3.2 4.8 0.00 0.00 0.00 1 1014.3
20260508122703 17 151 3.2 4.8 0.00 0.00 0.00 1 1014.3
20260508122604 17 152 3.2 4.8 0.00 0.00 0.00 1 1014.2
20260508122503 17 152 3.2 4.8 0.00 0.00 0.00 1 1014.2
20260508122403 17 151 3.2 4.8 0.00 0.00 0.00 1 1014.2
20260508122306 17 151 3.2 4.8 0.00 0.00 0.00 1 1014.3
20260508122224 17 151 3.2 4.8 0.00 0.00 0.00 1 1014.3
20260508122103 17 151 3.2 6.4 0.00 0.00 0.00 1 1014.3
20260508122003 17 150 3.2 6.4 0.00 0.00 0.00 1 1014.3
20260508121903 17 150 3.2 6.4 0.00 0.00 0.00 1 1014.3
20260508121803 17 149 3.2 6.4 0.00 0.00 0.00 1 1014.3
20260508121703 17 148 3.2 6.4 0.00 0.00 0.00 1 1014.3
20260508121603 17 148 3.2 6.4 0.00 0.00 0.00 1 1014.4
20260508121503 17 147 3.2 6.4 0.00 0.00 0.00 1 1014.4
20260508121424 17 146 3.2 9.7 0.00 0.00 0.00 1 1014.4
20260508121304 17 149 3.2 9.7 0.00 0.00 0.00 1 1014.4
20260508121203 17 152 3.2 9.7 0.00 0.00 0.00 1 1014.5
20260508121103 17 152 3.2 9.7 0.00 0.00 0.00 1 1014.5
20260508121003 17 153 3.2 9.7 0.00 0.00 0.00 1 1014.5
20260508120903 17 155 4.8 9.7 0.00 0.00 0.00 1 1014.5
20260508120803 17 156 4.8 9.7 0.00 0.00 0.00 1 1014.5
20260508120703 17 157 4.8 9.7 0.00 0.00 0.00 1 1014.5
20260508120603 17 158 4.8 9.7 0.00 0.00 0.00 1 1014.5
20260508120503 17 159 4.8 9.7 0.00 0.00 0.00 1 1014.5
20260508120403 17 159 4.8 8.0 0.00 0.00 0.00 1 1014.6
20260508120303 17 157 4.8 8.0 0.00 0.00 0.00 1 1014.6
20260508120203 17 154 4.8 8.0 0.00 0.00 0.00 1 1014.6
20260508120103 17 153 4.8 8.0 0.00 0.00 0.00 1 1014.6
20260508120003 17 154 4.8 8.0 0.00 0.00 0.00 1 1014.6
20260508115903 17 154 4.8 8.0 0.00 0.00 0.00 1 1014.6
20260508115803 17 155 4.8 8.0 0.00 0.00 0.00 1 1014.6
20260508115703 17 156 4.8 8.0 0.00 0.00 0.00 1 1014.6
20260508115603 17 158 4.8 11.3 0.00 0.00 0.00 1 1014.6
20260508115503 17 158 4.8 11.3 0.00 0.00 0.00 1 1014.7
20260508115424 17 159 4.8 11.3 0.00 0.00 0.00 1 1014.7
20260508115306 17 161 4.8 11.3 0.00 0.00 0.00 1 1014.7
20260508115203 17 163 4.8 11.3 0.00 0.00 0.00 1 1014.8
20260508115103 17 163 4.8 11.3 0.00 0.00 0.00 1 1014.8
20260508115003 17 163 4.8 11.3 0.00 0.00 0.00 1 1014.8
20260508114903 17 164 6.4 11.3 0.00 0.00 0.00 1 1014.8
20260508114803 17 163 4.8 11.3 0.00 0.00 0.00 2 1014.9
20260508114724 17 162 4.8 11.3 0.00 0.00 0.00 2 1014.9
20260508114603 17 161 4.8 9.7 0.00 0.00 0.00 1 1014.9
20260508114503 17 163 4.8 9.7 0.00 0.00 0.00 1 1014.9
20260508114424 17 163 4.8 9.7 0.00 0.00 0.00 1 1014.8
20260508114303 17 161 4.8 9.7 0.00 0.00 0.00 2 1014.8
20260508114203 17 161 4.8 9.7 0.00 0.00 0.00 2 1014.9
20260508114103 17 162 4.8 9.7 0.00 0.00 0.00 2 1014.8
20260508114003 17 164 4.8 9.7 0.00 0.00 0.00 3 1014.9
20260508113903 17 161 4.8 9.7 0.00 0.00 0.00 2 1014.8
20260508113824 17 161 4.8 9.7 0.00 0.00 0.00 2 1014.8
20260508113703 17 161 4.8 11.3 0.00 0.00 0.00 3 1014.8
20260508113624 17 160 4.8 11.3 0.00 0.00 0.00 3 1014.8
20260508113524 17 159 4.8 11.3 0.00 0.00 0.00 3 1014.8
20260508113403 17 160 4.8 11.3 0.00 0.00 0.00 3 1014.9
20260508113303 17 159 4.8 11.3 0.00 0.00 0.00 3 1014.8
20260508113203 17 157 4.8 11.3 0.00 0.00 0.00 3 1014.9
20260508113124 17 156 4.8 11.3 0.00 0.00 0.00 3 1014.8
20260508113004 17 155 4.8 11.3 0.00 0.00 0.00 3 1014.8
20260508112903 17 158 4.8 11.3 0.00 0.00 0.00 3 1014.8
20260508112803 17 160 6.4 11.3 0.00 0.00 0.00 3 1014.7
20260508112703 17 161 6.4 11.3 0.00 0.00 0.00 3 1014.7
20260508112603 17 160 4.8 11.3 0.00 0.00 0.00 3 1014.7
20260508112524 17 158 4.8 11.3 0.00 0.00 0.00 3 1014.7
20260508112403 17 156 4.8 11.3 0.00 0.00 0.00 2 1014.6
20260508112306 17 156 4.8 11.3 0.00 0.00 0.00 2 1014.7
20260508112203 17 156 4.8 11.3 0.00 0.00 0.00 3 1014.6
20260508112104 17 159 4.8 11.3 0.00 0.00 0.00 4 1014.6
20260508112003 17 159 4.8 11.3 0.00 0.00 0.00 4 1014.6
20260508111903 17 158 4.8 11.3 0.00 0.00 0.00 4 1014.6
20260508111803 17 157 4.8 11.3 0.00 0.00 0.00 3 1014.7
20260508111724 17 158 4.8 8.0 0.00 0.00 0.00 3 1014.6
20260508111604 17 163 4.8 8.0 0.00 0.00 0.00 3 1014.7
20260508111504 17 167 4.8 9.7 0.00 0.00 0.00 3 1014.6
20260508111404 17 171 4.8 9.7 0.00 0.00 0.00 3 1014.6
20260508111304 17 172 4.8 9.7 0.00 0.00 0.00 4 1014.6
20260508111205 17 175 4.8 9.7 0.00 0.00 0.00 3 1014.5
20260508111105 17 175 4.8 9.7 0.00 0.00 0.00 4 1014.5
20260508111025 17 176 4.8 9.7 0.00 0.00 0.00 4 1014.4
20260508110925 17 176 4.8 9.7 0.00 0.00 0.00 3 1014.4
20260508110804 17 177 4.8 9.7 0.00 0.00 0.00 4 1014.3
20260508110704 17 175 4.8 9.7 0.00 0.00 0.00 5 1014.3
20260508110604 17 173 4.8 9.7 0.00 0.00 0.00 5 1014.3
20260508110505 17 173 4.8 8.0 0.00 0.00 0.00 4 1014.3
20260508110404 17 170 3.2 6.4 0.00 0.00 0.00 4 1014.3
20260508110304 17 172 3.2 6.4 0.00 0.00 0.00 4 1014.3
20260508110204 17 173 3.2 6.4 0.00 0.00 0.00 5 1014.4
20260508110104 17 174 4.8 8.0 0.00 0.00 0.00 5 1014.4
20260508110025 17 173 4.8 9.7 0.00 0.00 0.00 5 1014.4
20260508105904 17 172 4.8 12.9 0.00 0.00 0.00 6 1014.4
20260508105804 17 171 4.8 12.9 0.00 0.00 0.00 6 1014.4
20260508105704 17 172 4.8 12.9 0.00 0.00 0.00 5 1014.5
20260508105604 17 171 4.8 12.9 0.00 0.00 0.00 6 1014.5
20260508105504 17 167 4.8 12.9 0.00 0.00 0.00 5 1014.5
20260508105404 17 166 4.8 12.9 0.00 0.00 0.00 6 1014.4
20260508105325 17 167 6.4 12.9 0.00 0.00 0.00 6 1014.5
20260508105225 17 167 6.4 12.9 0.00 0.00 0.00 7 1014.4
20260508105104 17 166 6.4 12.9 0.00 0.00 0.00 6 1014.4
20260508105004 17 165 6.4 12.9 0.00 0.00 0.00 7 1014.4
20260508104904 17 166 6.4 12.9 0.00 0.00 0.00 6 1014.4
20260508104804 17 164 6.4 12.9 0.00 0.00 0.00 7 1014.4
20260508104705 17 164 4.8 12.9 0.00 0.00 0.00 6 1014.5
20260508104605 17 166 4.8 12.9 0.00 0.00 0.00 6 1014.4
20260508104504 17 169 4.8 12.9 0.00 0.00 0.00 7 1014.5
20260508104405 17 168 4.8 12.9 0.00 0.00 0.00 7 1014.4
20260508104325 17 167 4.8 12.9 0.00 0.00 0.00 7 1014.4
20260508104204 17 165 4.8 12.9 0.00 0.00 0.00 8 1014.3
20260508104104 17 166 6.4 12.9 0.00 0.00 0.00 7 1014.3
20260508104004 17 168 6.4 12.9 0.00 0.00 0.00 7 1014.3
20260508103904 17 168 6.4 12.9 0.00 0.00 0.00 7 1014.3
20260508103804 17 172 6.4 12.9 0.00 0.00 0.00 7 1014.2
20260508103704 17 170 6.4 12.9 0.00 0.00 0.00 7 1014.3
20260508103604 17 170 6.4 12.9 0.00 0.00 0.00 7 1014.2
20260508103526 17 167 6.4 12.9 0.00 0.00 0.00 7 1014.2
20260508103404 17 168 6.4 12.9 0.00 0.00 0.00 7 1014.3
20260508103326 17 167 6.4 12.9 0.00 0.00 0.00 8 1014.3
20260508103204 17 167 6.4 12.9 0.00 0.00 0.00 8 1014.3
20260508103104 17 167 6.4 12.9 0.00 0.00 0.00 8 1014.3
20260508103004 17 166 6.4 12.9 0.00 0.00 0.00 8 1014.3
20260508102904 17 164 6.4 12.9 0.00 0.00 0.00 8 1014.3
20260508102804 17 163 6.4 12.9 0.00 0.00 0.00 8 1014.4
20260508102704 17 164 6.4 12.9 0.00 0.00 0.00 8 1014.3
20260508102625 17 163 6.4 12.9 0.00 0.00 0.00 7 1014.4
20260508102504 17 164 8.0 14.5 0.00 0.00 0.00 7 1014.4
20260508102404 17 165 8.0 14.5 0.00 0.00 0.00 7 1014.4
20260508102306 17 166 8.0 14.5 0.00 0.00 0.00 8 1014.4
20260508102226 17 166 8.0 14.5 0.00 0.00 0.00 8 1014.4
20260508102104 17 167 8.0 14.5 0.00 0.00 0.00 8 1014.5
20260508102026 17 167 8.0 14.5 0.00 0.00 0.00 8 1014.5
20260508101904 17 167 6.4 14.5 0.00 0.00 0.00 8 1014.6
20260508101804 17 168 8.0 14.5 0.00 0.00 0.00 8 1014.6
20260508101725 17 167 6.4 14.5 0.00 0.00 0.00 8 1014.6
20260508101604 17 168 6.4 14.5 0.00 0.00 0.00 8 1014.6
20260508101504 17 169 6.4 12.9 0.00 0.00 0.00 8 1014.7
20260508101425 17 166 6.4 14.5 0.00 0.00 0.00 9 1014.7
20260508101304 17 166 8.0 14.5 0.00 0.00 0.00 9 1014.7
20260508101204 17 165 8.0 14.5 0.00 0.00 0.00 9 1014.8
20260508101104 17 164 8.0 14.5 0.00 0.00 0.00 10 1014.8
20260508101026 17 164 8.0 14.5 0.00 0.00 0.00 10 1014.8
20260508100904 17 165 8.0 14.5 0.00 0.00 0.00 10 1014.8
20260508100804 17 163 8.0 14.5 0.00 0.00 0.00 10 1014.8
20260508100704 17 163 8.0 14.5 0.00 0.00 0.00 11 1014.9
20260508100604 17 162 6.4 14.5 0.00 0.00 0.00 11 1014.9
20260508100504 17 159 6.4 14.5 0.00 0.00 0.00 11 1014.9
20260508100404 17 159 6.4 12.9 0.00 0.00 0.00 11 1014.8
20260508100304 17 158 6.4 12.9 0.00 0.00 0.00 11 1014.8
20260508100204 17 156 6.4 12.9 0.00 0.00 0.00 11 1014.7
20260508100104 17 154 4.8 11.3 0.00 0.00 0.00 11 1014.6
20260508100004 17 152 4.8 11.3 0.00 0.00 0.00 11 1014.6
20260508095925 17 149 4.8 9.7 0.00 0.00 0.00 10 1014.7
20260508095804 17 147 4.8 8.0 0.00 0.00 0.00 11 1014.8
20260508095704 17 145 3.2 8.0 0.00 0.00 0.00 10 1014.9
20260508095625 17 144 4.8 8.0 0.00 0.00 0.00 11 1014.9
20260508095504 17 145 4.8 8.0 0.00 0.00 0.00 11 1015.0
20260508095404 17 146 4.8 8.0 0.00 0.00 0.00 10 1014.9
20260508095306 17 146 3.2 8.0 0.00 0.00 0.00 10 1015.0
20260508095204 17 146 3.2 8.0 0.00 0.00 0.00 9 1015.0
20260508095104 17 146 3.2 8.0 0.00 0.00 0.00 9 1015.0
20260508095004 17 146 3.2 8.0 0.00 0.00 0.00 9 1015.0
20260508094905 17 146 3.2 8.0 0.00 0.00 0.00 9 1015.0
20260508094804 17 146 3.2 8.0 0.00 0.00 0.00 10 1015.0
20260508094725 17 146 3.2 8.0 0.00 0.00 0.00 9 1015.0
20260508094604 17 147 3.2 8.0 0.00 0.00 0.00 10 1015.0
20260508094525 17 146 3.2 8.0 0.00 0.00 0.00 10 1015.0
20260508094404 17 145 1.6 6.4 0.00 0.00 0.00 9 1015.0
20260508094326 17 145 1.6 6.4 0.00 0.00 0.00 9 1015.0
20260508094204 17 144 1.6 6.4 0.00 0.00 0.00 9 1015.0
20260508094104 17 144 1.6 6.4 0.00 0.00 0.00 10 1015.0
20260508094005 17 144 1.6 6.4 0.00 0.00 0.00 9 1015.0
20260508093904 17 144 3.2 6.4 0.00 0.00 0.00 9 1015.0
20260508093804 17 145 3.2 6.4 0.00 0.00 0.00 9 1015.0
20260508093725 17 145 3.2 6.4 0.00 0.00 0.00 9 1015.0
20260508093625 17 145 3.2 6.4 0.00 0.00 0.00 9 1015.0
20260508093504 17 146 3.2 6.4 0.00 0.00 0.00 8 1014.9
20260508093404 17 147 3.2 6.4 0.00 0.00 0.00 8 1014.9
20260508093304 17 147 3.2 6.4 0.00 0.00 0.00 8 1014.9
20260508093204 17 148 3.2 6.4 0.00 0.00 0.00 8 1015.0
20260508093125 17 148 3.2 6.4 0.00 0.00 0.00 9 1015.0
20260508093004 17 149 3.2 6.4 0.00 0.00 0.00 9 1014.9
20260508092925 17 149 3.2 6.4 0.00 0.00 0.00 8 1014.9
20260508092804 17 149 3.2 6.4 0.00 0.00 0.00 8 1014.8
20260508092725 17 150 3.2 6.4 0.00 0.00 0.00 8 1014.8
20260508092605 17 150 3.2 6.4 0.00 0.00 0.00 8 1014.8
20260508092504 17 151 3.2 6.4 0.00 0.00 0.00 8 1014.8
20260508092404 17 152 3.2 6.4 0.00 0.00 0.00 8 1014.8
20260508092312 17 153 3.2 6.4 0.00 0.00 0.00 8 1014.8
20260508092225 17 154 3.2 6.4 0.00 0.00 0.00 8 1014.8
20260508092104 17 155 3.2 6.4 0.00 0.00 0.00 7 1014.6
20260508092005 17 155 3.2 6.4 0.00 0.00 0.00 8 1014.6
20260508091925 17 156 3.2 6.4 0.00 0.00 0.00 8 1014.5
20260508091804 17 155 3.2 8.0 0.00 0.00 0.00 8 1014.6
20260508091704 17 155 3.2 8.0 0.00 0.00 0.00 7 1014.5
20260508091604 17 154 3.2 8.0 0.00 0.00 0.00 7 1014.5
20260508091504 17 152 3.2 8.0 0.00 0.00 0.00 7 1014.5
20260508091425 17 151 3.2 8.0 0.00 0.00 0.00 7 1014.4
20260508091304 17 149 3.2 8.0 0.00 0.00 0.00 7 1014.4
20260508091204 17 148 3.2 8.0 0.00 0.00 0.00 7 1014.4
20260508091105 17 147 3.2 8.0 0.00 0.00 0.00 7 1014.4
20260508091025 17 145 3.2 8.0 0.00 0.00 0.00 7 1014.4
20260508090904 17 143 3.2 8.0 0.00 0.00 0.00 7 1014.4
20260508090804 17 140 3.2 6.4 0.00 0.00 0.00 6 1014.4
20260508090704 17 140 3.2 6.4 0.00 0.00 0.00 6 1014.5
20260508090605 17 139 3.2 6.4 0.00 0.00 0.00 6 1014.5
20260508090504 17 139 3.2 6.4 0.00 0.00 0.00 6 1014.6
20260508090404 17 138 3.2 6.4 0.00 0.00 0.00 6 1014.5
20260508090304 17 138 3.2 6.4 0.00 0.00 0.00 7 1014.5
20260508090204 17 138 3.2 6.4 0.00 0.00 0.00 7 1014.5
20260508090104 17 137 3.2 6.4 0.00 0.00 0.00 7 1014.4
20260508090004 17 137 3.2 6.4 0.00 0.00 0.00 7 1014.5
20260508085904 17 137 3.2 6.4 0.00 0.00 0.00 6 1014.4
20260508085804 17 138 3.2 6.4 0.00 0.00 0.00 7 1014.4
20260508085705 17 139 3.2 6.4 0.00 0.00 0.00 8 1014.4
20260508085604 17 141 3.2 6.4 0.00 0.00 0.00 8 1014.4
20260508085504 17 142 3.2 6.4 0.00 0.00 0.00 8 1014.4
20260508085404 17 145 3.2 6.4 0.00 0.00 0.00 9 1014.5
20260508085307 17 147 3.2 6.4 0.00 0.00 0.00 11 1014.5
20260508085204 17 149 3.2 8.0 0.00 0.00 0.00 11 1014.5
20260508085105 17 153 3.2 8.0 0.00 0.00 0.00 11 1014.5
20260508085004 17 155 3.2 8.0 0.00 0.00 0.00 10 1014.5
20260508084926 17 155 3.2 8.0 0.00 0.00 0.00 11 1014.5
20260508084804 17 156 3.2 8.0 0.00 0.00 0.00 12 1014.5
20260508084704 17 156 3.2 8.0 0.00 0.00 0.00 11 1014.5
20260508084604 17 156 3.2 8.0 0.00 0.00 0.00 12 1014.5
20260508084504 17 155 3.2 8.0 0.00 0.00 0.00 12 1014.5
20260508084426 17 155 3.2 8.0 0.00 0.00 0.00 12 1014.5
20260508084325 17 155 3.2 8.0 0.00 0.00 0.00 13 1014.5
20260508084204 17 155 3.2 8.0 0.00 0.00 0.00 15 1014.6
20260508084104 17 155 3.2 6.4 0.00 0.00 0.00 15 1014.6
20260508084004 17 155 3.2 6.4 0.00 0.00 0.00 15 1014.6
20260508083904 17 156 3.2 6.4 0.00 0.00 0.00 16 1014.5
20260508083825 17 156 3.2 6.4 0.00 0.00 0.00 16 1014.5
20260508083704 17 156 3.2 6.4 0.00 0.00 0.00 17 1014.5
20260508083625 17 156 3.2 6.4 0.00 0.00 0.00 17 1014.5
20260508083525 17 157 3.2 6.4 0.00 0.00 0.00 17 1014.5
20260508083404 17 156 3.2 6.4 0.00 0.00 0.00 17 1014.6
20260508083325 17 157 3.2 6.4 0.00 0.00 0.00 17 1014.6
20260508083205 17 158 3.2 6.4 0.00 0.00 0.00 17 1014.6
20260508083125 17 158 3.2 6.4 0.00 0.00 0.00 17 1014.6
20260508083025 17 158 4.8 6.4 0.00 0.00 0.00 18 1014.6
20260508082904 17 157 4.8 6.4 0.00 0.00 0.00 18 1014.6
20260508082804 17 157 4.8 6.4 0.00 0.00 0.00 19 1014.7
20260508082704 17 157 3.2 6.4 0.00 0.00 0.00 18 1014.8
20260508082604 17 157 4.8 6.4 0.00 0.00 0.00 19 1014.8
20260508082504 17 157 4.8 6.4 0.00 0.00 0.00 18 1014.7
20260508082404 17 156 3.2 6.4 0.00 0.00 0.00 19 1014.8
20260508082306 17 156 3.2 6.4 0.00 0.00 0.00 18 1014.8
20260508082204 17 157 3.2 6.4 0.00 0.00 0.00 18 1014.8
20260508082104 17 161 3.2 6.4 0.00 0.00 0.00 18 1014.8
20260508082004 17 168 3.2 9.7 0.00 0.00 0.00 18 1014.7
20260508081904 17 173 3.2 11.3 0.00 0.00 0.00 17 1014.7
20260508081804 17 177 3.2 11.3 0.00 0.00 0.00 18 1014.7
20260508081704 17 181 3.2 11.3 0.00 0.00 0.00 18 1014.7
20260508081604 17 184 3.2 11.3 0.00 0.00 0.00 18 1014.6
20260508081504 17 187 3.2 11.3 0.00 0.00 0.00 18 1014.7
20260508081404 17 191 3.2 11.3 0.00 0.00 0.00 18 1014.6
20260508081304 17 192 3.2 11.3 0.00 0.00 0.00 17 1014.6
20260508081204 17 192 3.2 11.3 0.00 0.00 0.00 17 1014.6
20260508081104 17 192 3.2 11.3 0.00 0.00 0.00 18 1014.5
20260508081004 17 189 3.2 11.3 0.00 0.00 0.00 18 1014.5
20260508080904 17 188 3.2 11.3 0.00 0.00 0.00 18 1014.4
20260508080804 17 187 3.2 11.3 0.00 0.00 0.00 18 1014.5
20260508080704 17 187 4.8 11.3 0.00 0.00 0.00 18 1014.5
20260508080604 17 189 4.8 11.3 0.00 0.00 0.00 19 1014.5
20260508080505 17 191 4.8 11.3 0.00 0.00 0.00 19 1014.5
20260508080404 17 191 4.8 11.3 0.00 0.00 0.00 19 1014.5
20260508080304 17 194 4.8 11.3 0.00 0.00 0.00 19 1014.5
20260508080204 17 193 4.8 11.3 0.00 0.00 0.00 19 1014.5
20260508080104 17 190 4.8 9.7 0.00 0.00 0.00 18 1014.5
20260508080004 17 192 4.8 9.7 0.00 0.00 0.00 18 1014.5
20260508075925 17 192 4.8 9.7 0.00 0.00 0.00 19 1014.5
20260508075804 17 190 4.8 9.7 0.00 0.00 0.00 19 1014.5
20260508075704 17 189 4.8 9.7 0.00 0.00 0.00 19 1014.5
20260508075604 17 187 4.8 9.7 0.00 0.00 0.00 19 1014.5
20260508075505 17 184 3.2 9.7 0.00 0.00 0.00 19 1014.5
20260508075404 17 183 3.2 9.7 0.00 0.00 0.00 19 1014.5
20260508075308 17 180 3.2 9.7 0.00 0.00 0.00 19 1014.6
20260508075204 17 181 3.2 9.7 0.00 0.00 0.00 19 1014.5
20260508075104 17 183 3.2 9.7 0.00 0.00 0.00 19 1014.5
20260508075004 17 181 3.2 8.0 0.00 0.00 0.00 19 1014.6
20260508074904 17 182 3.2 8.0 0.00 0.00 0.00 19 1014.5
20260508074825 17 183 1.6 8.0 0.00 0.00 0.00 19 1014.6
20260508074704 17 186 1.6 8.0 0.00 0.00 0.00 19 1014.5
20260508074604 17 188 1.6 8.0 0.00 0.00 0.00 19 1014.5
20260508074525 17 186 1.6 8.0 0.00 0.00 0.00 19 1014.4
20260508074404 17 186 1.6 8.0 0.00 0.00 0.00 19 1014.4
20260508074304 17 184 1.6 8.0 0.00 0.00 0.00 19 1014.4
20260508074225 17 184 1.6 8.0 0.00 0.00 0.00 19 1014.3
20260508074104 17 183 1.6 8.0 0.00 0.00 0.00 19 1014.4
20260508074004 17 179 1.6 8.0 0.00 0.00 0.00 19 1014.4
20260508073904 17 179 1.6 8.0 0.00 0.00 0.00 19 1014.3
20260508073804 17 184 3.2 8.0 0.00 0.00 0.00 19 1014.3
20260508073704 17 184 3.2 8.0 0.00 0.00 0.00 19 1014.4
20260508073604 17 183 1.6 8.0 0.00 0.00 0.00 19 1014.4
20260508073504 17 185 1.6 8.0 0.00 0.00 0.00 18 1014.4
20260508073404 17 185 1.6 8.0 0.00 0.00 0.00 18 1014.5
20260508073304 17 187 1.6 8.0 0.00 0.00 0.00 19 1014.4
20260508073204 17 188 1.6 8.0 0.00 0.00 0.00 19 1014.4
20260508073104 17 188 1.6 8.0 0.00 0.00 0.00 18 1014.5
20260508073004 17 191 1.6 8.0 0.00 0.00 0.00 18 1014.5
20260508072925 17 195 0.0 8.0 0.00 0.00 0.00 19 1014.5
20260508072805 17 200 0.0 8.0 0.00 0.00 0.00 18 1014.5
20260508072705 17 192 0.0 4.8 0.00 0.00 0.00 18 1014.5
20260508072604 17 192 0.0 4.8 0.00 0.00 0.00 18 1014.5
20260508072504 17 192 0.0 4.8 0.00 0.00 0.00 18 1014.4
20260508072405 17 192 0.0 4.8 0.00 0.00 0.00 18 1014.4
20260508072307 17 192 0.0 4.8 0.00 0.00 0.00 18 1014.4
20260508072204 17 0 0.0 0.0 0.00 0.00 0.00 17 1014.3
20260508072104 17 0 0.0 0.0 0.00 0.00 0.00 17 1014.3
20260508072005 17 0 0.0 0.0 0.00 0.00 0.00 16 1014.3
20260508071904 17 0 0.0 0.0 0.00 0.00 0.00 16 1014.3
20260508071804 17 0 0.0 0.0 0.00 0.00 0.00 16 1014.4
20260508071725 17 0 0.0 0.0 0.00 0.00 0.00 16 1014.4
20260508071604 17 170 0.0 4.8 0.00 0.00 0.00 16 1014.5
20260508071525 17 170 0.0 4.8 0.00 0.00 0.00 15 1014.6
20260508071404 17 170 0.0 4.8 0.00 0.00 0.00 15 1014.5
20260508071304 17 170 0.0 4.8 0.00 0.00 0.00 14 1014.6
20260508071204 17 170 0.0 4.8 0.00 0.00 0.00 14 1014.5
20260508071104 17 167 1.6 8.0 0.00 0.00 0.00 14 1014.5
20260508071004 17 166 1.6 8.0 0.00 0.00 0.00 14 1014.6
20260508070904 17 164 1.6 8.0 0.00 0.00 0.00 13 1014.7
20260508070804 17 163 1.6 8.0 0.00 0.00 0.00 13 1014.8
20260508070704 17 162 1.6 8.0 0.00 0.00 0.00 13 1014.9
20260508070604 17 161 1.6 8.0 0.00 0.00 0.00 13 1014.9
20260508070504 17 160 1.6 8.0 0.00 0.00 0.00 12 1015.0
20260508070404 17 160 1.6 8.0 0.00 0.00 0.00 12 1015.0
20260508070304 17 160 1.6 8.0 0.00 0.00 0.00 11 1015.1
20260508070204 17 156 0.0 8.0 0.00 0.00 0.00 10 1015.1
20260508070104 17 153 0.0 6.4 0.00 0.00 0.00 11 1015.1
20260508070005 17 152 0.0 6.4 0.00 0.00 0.00 10 1015.1
20260508065904 17 152 0.0 3.2 0.00 0.00 0.00 9 1015.1
20260508065804 17 0 0.0 0.0 0.00 0.00 0.00 10 1015.0
20260508065725 17 0 0.0 0.0 0.00 0.00 0.00 10 1015.1
20260508065604 17 0 0.0 0.0 0.00 0.00 0.00 9 1015.0
20260508065504 17 0 0.0 0.0 0.00 0.00 0.00 10 1015.0
20260508065405 17 0 0.0 0.0 0.00 0.00 0.00 10 1015.0
20260508065307 17 0 0.0 0.0 0.00 0.00 0.00 10 1015.0
20260508065204 17 0 0.0 0.0 0.00 0.00 0.00 10 1015.1
20260508065104 16 151 0.0 3.2 0.00 0.00 0.00 9 1015.1
20260508065004 17 151 0.0 4.8 0.00 0.00 0.00 8 1015.2
20260508064904 16 151 0.0 4.8 0.00 0.00 0.00 8 1015.1
20260508064825 16 151 0.0 4.8 0.00 0.00 0.00 8 1015.1
20260508064705 16 151 0.0 4.8 0.00 0.00 0.00 8 1015.1
20260508064604 16 151 0.0 4.8 0.00 0.00 0.00 7 1015.2
20260508064504 16 151 0.0 4.8 0.00 0.00 0.00 7 1015.2
20260508064404 16 151 0.0 4.8 0.00 0.00 0.00 7 1015.2
20260508064304 16 150 0.0 4.8 0.00 0.00 0.00 7 1015.2
20260508064204 16 150 0.0 4.8 0.00 0.00 0.00 7 1015.3
20260508064104 16 150 0.0 4.8 0.00 0.00 0.00 6 1015.3
20260508064004 16 150 0.0 4.8 0.00 0.00 0.00 6 1015.4
20260508063904 16 150 0.0 4.8 0.00 0.00 0.00 6 1015.4
20260508063804 16 150 0.0 4.8 0.00 0.00 0.00 5 1015.5
20260508063704 16 150 0.0 4.8 0.00 0.00 0.00 5 1015.5
20260508063604 16 150 0.0 4.8 0.00 0.00 0.00 5 1015.6
20260508063504 17 150 0.0 4.8 0.00 0.00 0.00 5 1015.6
20260508063404 16 149 0.0 4.8 0.00 0.00 0.00 5 1015.7
20260508063304 16 148 0.0 4.8 0.00 0.00 0.00 5 1015.7
20260508063204 16 146 0.0 4.8 0.00 0.00 0.00 5 1015.7
20260508063104 16 146 0.0 4.8 0.00 0.00 0.00 6 1015.7
20260508063004 16 146 0.0 4.8 0.00 0.00 0.00 5 1015.8
20260508062904 16 146 0.0 4.8 0.00 0.00 0.00 5 1015.8
20260508062804 16 146 0.0 4.8 0.00 0.00 0.00 5 1015.8
20260508062704 16 146 0.0 4.8 0.00 0.00 0.00 5 1015.9
20260508062604 16 146 0.0 4.8 0.00 0.00 0.00 4 1015.9
20260508062504 16 146 0.0 4.8 0.00 0.00 0.00 5 1015.9
20260508062404 16 146 0.0 4.8 0.00 0.00 0.00 5 1015.9
20260508062306 16 146 0.0 4.8 0.00 0.00 0.00 5 1015.9
20260508062205 16 146 0.0 1.6 0.00 0.00 0.00 4 1015.8
20260508062104 16 146 0.0 1.6 0.00 0.00 0.00 3 1015.8
20260508062004 16 146 0.0 1.6 0.00 0.00 0.00 4 1015.7
20260508061904 16 146 0.0 1.6 0.00 0.00 0.00 4 1015.6
20260508061825 16 146 0.0 1.6 0.00 0.00 0.00 5 1015.5
20260508061704 16 0 0.0 0.0 0.00 0.00 0.00 5 1015.4
20260508061604 16 0 0.0 0.0 0.00 0.00 0.00 5 1015.3
20260508061504 16 146 0.0 1.6 0.00 0.00 0.00 5 1015.4
20260508061404 16 146 0.0 1.6 0.00 0.00 0.00 6 1015.3
20260508061304 16 146 0.0 1.6 0.00 0.00 0.00 6 1015.2
20260508061204 16 146 0.0 1.6 0.00 0.00 0.00 6 1015.3
20260508061104 16 146 0.0 1.6 0.00 0.00 0.00 7 1015.2
20260508061004 16 146 0.0 1.6 0.00 0.00 0.00 7 1015.2
20260508060904 16 146 0.0 1.6 0.00 0.00 0.00 7 1015.2
20260508060804 16 146 0.0 1.6 0.00 0.00 0.00 7 1015.2
20260508060704 16 146 0.0 1.6 0.00 0.00 0.00 7 1015.2
20260508060604 16 146 0.0 1.6 0.00 0.00 0.00 7 1015.2
20260508060504 16 146 0.0 1.6 0.00 0.00 0.00 7 1015.2
20260508060404 16 146 0.0 1.6 0.00 0.00 0.00 8 1015.2
20260508060304 16 146 0.0 1.6 0.00 0.00 0.00 8 1015.2
20260508060204 16 146 0.0 1.6 0.00 0.00 0.00 8 1015.3
20260508060104 16 0 0.0 0.0 0.00 0.00 0.00 8 1015.3
20260508060005 16 0 0.0 0.0 0.00 0.00 0.00 8 1015.4
20260508055904 16 0 0.0 0.0 0.00 0.00 0.00 8 1015.4
20260508055804 16 0 0.0 0.0 0.00 0.00 0.00 8 1015.4
20260508055704 16 0 0.0 0.0 0.00 0.00 0.00 8 1015.5
20260508055604 16 0 0.0 0.0 0.00 0.00 0.00 8 1015.4
20260508055504 16 0 0.0 0.0 0.00 0.00 0.00 8 1015.4
20260508055404 16 0 0.0 0.0 0.00 0.00 0.00 9 1015.4
20260508055326 16 0 0.0 0.0 0.00 0.00 0.00 8 1015.4
20260508055204 16 0 0.0 0.0 0.00 0.00 0.00 8 1015.4
20260508055104 16 0 0.0 0.0 0.00 0.00 0.00 8 1015.4
20260508055004 16 0 0.0 0.0 0.00 0.00 0.00 9 1015.5
20260508054904 16 0 0.0 0.0 0.00 0.00 0.00 9 1015.6
20260508054804 16 0 0.0 0.0 0.00 0.00 0.00 9 1015.6
20260508054704 16 0 0.0 0.0 0.00 0.00 0.00 9 1015.7
20260508054604 16 0 0.0 0.0 0.00 0.00 0.00 10 1015.7
20260508054504 17 120 0.0 1.6 0.00 0.00 0.00 10 1015.8
20260508054404 17 120 0.0 1.6 0.00 0.00 0.00 10 1015.7
20260508054304 17 120 0.0 1.6 0.00 0.00 0.00 10 1015.7
20260508054204 17 120 0.0 1.6 0.00 0.00 0.00 11 1015.7
20260508054125 17 120 0.0 1.6 0.00 0.00 0.00 11 1015.7
20260508054004 17 120 0.0 1.6 0.00 0.00 0.00 11 1015.6
20260508053904 17 120 0.0 1.6 0.00 0.00 0.00 11 1015.6
20260508053804 17 120 0.0 1.6 0.00 0.00 0.00 12 1015.6
20260508053704 17 120 0.0 1.6 0.00 0.00 0.00 12 1015.7
20260508053625 17 120 0.0 1.6 0.00 0.00 0.00 12 1015.7
20260508053504 17 0 0.0 0.0 0.00 0.00 0.00 12 1015.7
20260508053404 17 180 0.0 8.0 0.00 0.00 0.00 13 1015.7
20260508053304 17 180 0.0 8.0 0.00 0.00 0.00 13 1015.7
20260508053204 17 180 0.0 8.0 0.00 0.00 0.00 13 1015.6
20260508053125 17 180 0.0 8.0 0.00 0.00 0.00 13 1015.4
20260508053004 17 180 0.0 8.0 0.00 0.00 0.00 13 1015.3
20260508052904 17 180 0.0 8.0 0.00 0.00 0.00 13 1015.1
20260508052804 17 180 0.0 8.0 0.00 0.00 0.00 14 1015.0
20260508052704 17 180 0.0 8.0 0.00 0.00 0.00 14 1014.8
20260508052604 17 180 0.0 8.0 0.00 0.00 0.00 14 1014.7
20260508052504 17 180 0.0 8.0 0.00 0.00 0.00 14 1014.6
20260508052404 17 0 0.0 0.0 0.00 0.00 0.00 14 1014.6
20260508052307 17 0 0.0 0.0 0.00 0.00 0.00 14 1014.6
20260508052204 17 0 0.0 0.0 0.00 0.00 0.00 14 1014.7
20260508052125 17 0 0.0 0.0 0.00 0.00 0.00 14 1014.7
20260508052004 17 0 0.0 0.0 0.00 0.00 0.00 14 1014.8
20260508051904 17 0 0.0 0.0 0.00 0.00 0.00 14 1014.8
20260508051825 17 0 0.0 0.0 0.00 0.00 0.00 14 1014.9
20260508051704 17 0 0.0 0.0 0.00 0.00 0.00 14 1014.9
20260508051626 17 0 0.0 0.0 0.00 0.00 0.00 14 1014.9
20260508051504 17 0 0.0 0.0 0.00 0.00 0.00 14 1015.0
20260508051404 17 0 0.0 0.0 0.00 0.00 0.00 14 1015.1
20260508051304 17 0 0.0 0.0 0.00 0.00 0.00 14 1015.1
20260508051204 17 0 0.0 0.0 0.00 0.00 0.00 14 1015.2
20260508051104 17 0 0.0 0.0 0.00 0.00 0.00 14 1015.3
20260508051025 17 0 0.0 0.0 0.00 0.00 0.00 14 1015.3
20260508050904 17 0 0.0 0.0 0.00 0.00 0.00 14 1015.4
20260508050804 17 0 0.0 0.0 0.00 0.00 0.00 13 1015.4
20260508050704 17 139 0.0 1.6 0.00 0.00 0.00 12 1015.5
20260508050604 17 139 0.0 1.6 0.00 0.00 0.00 12 1015.6
20260508050525 17 139 0.0 1.6 0.00 0.00 0.00 13 1015.7
20260508050404 17 139 0.0 1.6 0.00 0.00 0.00 13 1015.8
20260508050304 17 139 0.0 1.6 0.00 0.00 0.00 13 1015.9
20260508050204 17 139 0.0 1.6 0.00 0.00 0.00 13 1015.9
20260508050104 17 139 0.0 1.6 0.00 0.00 0.00 13 1016.0
20260508050004 17 139 0.0 1.6 0.00 0.00 0.00 13 1016.0
20260508045904 17 139 0.0 1.6 0.00 0.00 0.00 14 1016.0
20260508045804 17 139 0.0 1.6 0.00 0.00 0.00 14 1016.0
20260508045704 17 0 0.0 0.0 0.00 0.00 0.00 14 1016.0
20260508045604 17 0 0.0 0.0 0.00 0.00 0.00 15 1016.0
20260508045504 17 0 0.0 0.0 0.00 0.00 0.00 15 1016.0
20260508045404 17 0 0.0 0.0 0.00 0.00 0.00 16 1015.9
20260508045307 17 0 0.0 0.0 0.00 0.00 0.00 16 1015.8
20260508045204 17 0 0.0 0.0 0.00 0.00 0.00 17 1015.7
20260508045104 17 0 0.0 0.0 0.00 0.00 0.00 18 1015.5
20260508045004 17 0 0.0 0.0 0.00 0.00 0.00 18 1015.4
20260508044904 17 0 0.0 0.0 0.00 0.00 0.00 18 1015.3
20260508044804 17 0 0.0 0.0 0.00 0.00 0.00 19 1015.2
20260508044725 17 0 0.0 0.0 0.00 0.00 0.00 19 1015.1
20260508044604 17 0 0.0 0.0 0.00 0.00 0.00 19 1015.1
20260508044504 17 0 0.0 0.0 0.00 0.00 0.00 20 1015.1
20260508044404 17 0 0.0 0.0 0.00 0.00 0.00 20 1015.1
20260508044304 17 0 0.0 0.0 0.00 0.00 0.00 20 1015.1
20260508044225 17 0 0.0 0.0 0.00 0.00 0.00 20 1015.1
20260508044104 17 0 0.0 0.0 0.00 0.00 0.00 21 1015.1
20260508044004 17 0 0.0 0.0 0.00 0.00 0.00 20 1015.1
20260508043904 17 0 0.0 0.0 0.00 0.00 0.00 20 1015.1
20260508043825 17 0 0.0 0.0 0.00 0.00 0.00 20 1015.1
20260508043704 17 0 0.0 0.0 0.00 0.00 0.00 21 1015.1
20260508043604 17 0 0.0 0.0 0.00 0.00 0.00 21 1015.1
20260508043504 17 0 0.0 0.0 0.00 0.00 0.00 21 1015.1
20260508043404 17 0 0.0 0.0 0.00 0.00 0.00 21 1015.2
20260508043304 17 0 0.0 0.0 0.00 0.00 0.00 20 1015.2
20260508043204 17 0 0.0 0.0 0.00 0.00 0.00 21 1015.3